Time,TemperatureF,DewpointF,PressureIn,WindDirection,WindDirectionDegrees,WindSpeedMPH,WindSpeedGustMPH,Humidity,HourlyPrecipIn,Conditions,Clouds,dailyrainin,SoftwareType,DateUTC
2013-02-12 00:01:00,41.9,4.8,29.00,SE,137,0.0,0.0,21,0.00,,---,0.00,VWS V14.00,2013-02-12 06:01:00,
2013-02-12 00:02:00,41.9,4.8,29.00,SE,137,0.0,0.0,21,0.00,,---,0.00,VWS V14.00,2013-02-12 06:02:00,
2013-02-12 00:03:00,41.9,4.8,29.00,SE,137,0.0,0.0,21,0.00,,---,0.00,VWS V14.00,2013-02-12 06:03:00,
2013-02-12 00:06:00,41.9,4.8,29.00,SE,137,0.0,0.0,21,0.00,,---,0.00,VWS V14.00,2013-02-12 06:06:00,
2013-02-12 00:07:00,41.9,4.8,29.00,SE,137,0.0,0.0,21,0.00,,---,0.00,VWS V14.00,2013-02-12 06:07:00,
2013-02-12 00:08:00,41.9,4.8,29.00,SE,137,0.0,0.0,21,0.00,,---,0.00,VWS V14.00,2013-02-12 06:08:00,
2013-02-12 00:11:00,40.6,3.8,29.00,SE,137,0.0,0.0,21,0.00,,---,0.00,VWS V14.00,2013-02-12 06:11:00,
2013-02-12 00:12:00,40.6,3.8,29.00,SE,137,0.0,0.0,21,0.00,,---,0.00,VWS V14.00,2013-02-12 06:12:00,
2013-02-12 00:13:00,40.6,3.8,29.00,SE,137,0.0,0.0,21,0.00,,---,0.00,VWS V14.00,2013-02-12 06:13:00,
2013-02-12 00:16:00,40.3,3.5,29.00,SE,137,0.0,0.0,21,0.00,,---,0.00,VWS V14.00,2013-02-12 06:16:00,
2013-02-12 00:17:00,40.3,3.5,29.00,SE,137,0.0,0.0,21,0.00,,---,0.00,VWS V14.00,2013-02-12 06:17:00,
2013-02-12 00:18:00,39.7,3.0,29.00,SE,137,0.0,0.0,21,0.00,,---,0.00,VWS V14.00,2013-02-12 06:18:00,
2013-02-12 00:21:00,39.4,2.7,29.00,SE,137,0.0,0.0,21,0.00,,---,0.00,VWS V14.00,2013-02-12 06:21:00,
2013-02-12 00:22:00,39.4,2.7,29.00,SE,137,0.0,0.0,21,0.00,,---,0.00,VWS V14.00,2013-02-12 06:22:00,
2013-02-12 00:23:00,39.4,2.7,29.00,SE,137,0.0,0.0,21,0.00,,---,0.00,VWS V14.00,2013-02-12 06:23:00,
2013-02-12 00:27:00,39.4,2.7,28.97,SE,137,0.0,0.0,21,0.00,,---,0.00,VWS V14.00,2013-02-12 06:27:00,
2013-02-12 00:28:00,39.4,2.7,28.97,SE,137,0.0,0.0,21,0.00,,---,0.00,VWS V14.00,2013-02-12 06:28:00,
2013-02-12 00:32:00,39.2,2.6,28.97,SE,137,0.0,0.0,21,0.00,,---,0.00,VWS V14.00,2013-02-12 06:32:00,
2013-02-12 00:33:00,39.2,2.6,28.97,SE,137,0.0,0.0,21,0.00,,---,0.00,VWS V14.00,2013-02-12 06:33:00,
2013-02-12 00:37:00,39.2,2.6,28.97,SE,137,0.0,0.0,21,0.00,,---,0.00,VWS V14.00,2013-02-12 06:37:00,
2013-02-12 00:38:00,39.2,2.6,28.97,SE,137,0.0,0.0,21,0.00,,---,0.00,VWS V14.00,2013-02-12 06:38:00,
2013-02-12 00:42:00,38.7,2.1,28.97,SE,137,0.0,0.0,21,0.00,,---,0.00,VWS V14.00,2013-02-12 06:42:00,
2013-02-12 00:43:00,38.7,2.1,28.97,SE,137,0.0,0.0,21,0.00,,---,0.00,VWS V14.00,2013-02-12 06:43:00,
2013-02-12 00:47:00,38.3,1.8,28.97,SE,137,0.0,0.0,21,0.00,,---,0.00,VWS V14.00,2013-02-12 06:47:00,
2013-02-12 00:48:00,38.3,4.7,28.97,SE,137,0.0,0.0,24,0.00,,---,0.00,VWS V14.00,2013-02-12 06:48:00,
2013-02-12 00:49:00,38.3,4.7,28.97,SE,137,0.0,0.0,24,0.00,,---,0.00,VWS V14.00,2013-02-12 06:49:00,
2013-02-12 00:52:00,38.3,4.7,28.97,SE,137,0.0,0.0,24,0.00,,---,0.00,VWS V14.00,2013-02-12 06:52:00,
2013-02-12 00:53:00,38.3,4.7,28.97,SE,137,0.0,0.0,24,0.00,,---,0.00,VWS V14.00,2013-02-12 06:53:00,
2013-02-12 00:55:00,38.3,4.7,28.97,SE,137,0.0,0.0,24,0.00,,---,0.00,VWS V14.00,2013-02-12 06:55:00,
2013-02-12 00:57:00,38.3,4.7,28.97,SE,137,0.0,0.0,24,0.00,,---,0.00,VWS V14.00,2013-02-12 06:57:00,
2013-02-12 00:58:00,38.3,4.7,28.97,SE,137,0.0,0.0,24,0.00,,---,0.00,VWS V14.00,2013-02-12 06:58:00,
2013-02-12 01:00:00,38.3,4.7,28.97,SE,137,0.0,0.0,24,0.00,,---,0.00,VWS V14.00,2013-02-12 07:00:00,
2013-02-12 01:02:00,37.6,4.1,28.97,SE,137,0.0,0.0,24,0.00,,---,0.00,VWS V14.00,2013-02-12 07:02:00,
2013-02-12 01:03:00,37.6,4.1,28.97,SE,137,0.0,0.0,24,0.00,,---,0.00,VWS V14.00,2013-02-12 07:03:00,
2013-02-12 01:06:00,37.6,4.1,28.97,SE,137,0.0,0.0,24,0.00,,---,0.00,VWS V14.00,2013-02-12 07:06:00,
2013-02-12 01:07:00,37.6,4.1,28.97,SE,137,0.0,0.0,24,0.00,,---,0.00,VWS V14.00,2013-02-12 07:07:00,
2013-02-12 01:08:00,37.6,4.1,28.97,SE,137,0.0,0.0,24,0.00,,---,0.00,VWS V14.00,2013-02-12 07:08:00,
2013-02-12 01:11:00,37.6,4.1,28.97,SE,137,0.0,0.0,24,0.00,,---,0.00,VWS V14.00,2013-02-12 07:11:00,
2013-02-12 01:12:00,37.9,4.4,28.97,SE,137,0.0,0.0,24,0.00,,---,0.00,VWS V14.00,2013-02-12 07:12:00,
2013-02-12 01:13:00,37.9,4.4,28.97,SE,137,0.0,0.0,24,0.00,,---,0.00,VWS V14.00,2013-02-12 07:13:00,
2013-02-12 01:16:00,38.1,4.5,28.97,SE,137,0.0,0.0,24,0.00,,---,0.00,VWS V14.00,2013-02-12 07:16:00,
2013-02-12 01:18:00,38.1,4.5,28.97,SE,137,0.0,0.0,24,0.00,,---,0.00,VWS V14.00,2013-02-12 07:18:00,
2013-02-12 01:21:00,38.1,4.5,28.97,SE,137,0.0,0.0,24,0.00,,---,0.00,VWS V14.00,2013-02-12 07:21:00,
2013-02-12 01:23:00,38.1,4.5,28.97,SE,137,0.0,0.0,24,0.00,,---,0.00,VWS V14.00,2013-02-12 07:23:00,
2013-02-12 01:24:00,38.1,4.5,28.97,SE,137,0.0,0.0,24,0.00,,---,0.00,VWS V14.00,2013-02-12 07:24:00,
2013-02-12 01:26:00,37.9,4.4,28.97,SE,137,0.0,0.0,24,0.00,,---,0.00,VWS V14.00,2013-02-12 07:26:00,
2013-02-12 01:28:00,37.9,4.4,28.97,SE,137,0.0,0.0,24,0.00,,---,0.00,VWS V14.00,2013-02-12 07:28:00,
2013-02-12 01:29:00,37.8,4.2,28.97,SE,137,0.0,0.0,24,0.00,,---,0.00,VWS V14.00,2013-02-12 07:29:00,
2013-02-12 01:31:00,37.8,4.2,28.97,SE,137,0.0,0.0,24,0.00,,---,0.00,VWS V14.00,2013-02-12 07:31:00,
2013-02-12 01:33:00,37.8,4.2,28.97,SE,137,0.0,0.0,24,0.00,,---,0.00,VWS V14.00,2013-02-12 07:33:00,
2013-02-12 01:34:00,37.8,4.2,28.97,SE,137,0.0,0.0,24,0.00,,---,0.00,VWS V14.00,2013-02-12 07:34:00,
2013-02-12 01:36:00,37.2,6.3,28.97,SE,137,0.0,0.0,27,0.00,,---,0.00,VWS V14.00,2013-02-12 07:36:00,
2013-02-12 01:38:00,37.0,6.2,28.97,SE,137,0.0,0.0,27,0.00,,---,0.00,VWS V14.00,2013-02-12 07:38:00,
2013-02-12 01:39:00,37.0,6.2,28.97,SE,137,0.0,0.0,27,0.00,,---,0.00,VWS V14.00,2013-02-12 07:39:00,
2013-02-12 01:41:00,37.0,6.2,28.97,SE,137,0.0,0.0,27,0.00,,---,0.00,VWS V14.00,2013-02-12 07:41:00,
2013-02-12 01:43:00,37.0,6.2,28.97,SE,137,0.0,0.0,27,0.00,,---,0.00,VWS V14.00,2013-02-12 07:43:00,
2013-02-12 01:44:00,37.0,6.2,28.97,SE,137,0.0,0.0,27,0.00,,---,0.00,VWS V14.00,2013-02-12 07:44:00,
2013-02-12 01:46:00,37.0,6.2,28.97,SE,137,0.0,0.0,27,0.00,,---,0.00,VWS V14.00,2013-02-12 07:46:00,
2013-02-12 01:48:00,37.0,6.2,28.97,SE,137,0.0,0.0,27,0.00,,---,0.00,VWS V14.00,2013-02-12 07:48:00,
2013-02-12 01:49:00,37.4,5.7,28.97,SE,137,0.0,0.0,26,0.00,,---,0.00,VWS V14.00,2013-02-12 07:49:00,
2013-02-12 01:51:00,37.4,5.7,28.97,SE,137,0.0,0.0,26,0.00,,---,0.00,VWS V14.00,2013-02-12 07:51:00,
2013-02-12 01:53:00,37.4,5.7,28.97,SE,137,0.0,0.0,26,0.00,,---,0.00,VWS V14.00,2013-02-12 07:53:00,
2013-02-12 01:54:00,37.4,5.7,28.97,SE,137,0.0,0.0,26,0.00,,---,0.00,VWS V14.00,2013-02-12 07:54:00,
2013-02-12 01:56:00,37.6,5.8,28.97,SE,137,0.0,0.0,26,0.00,,---,0.00,VWS V14.00,2013-02-12 07:56:00,
2013-02-12 01:58:00,37.6,5.8,28.97,SE,137,0.0,0.0,26,0.00,,---,0.00,VWS V14.00,2013-02-12 07:58:00,
2013-02-12 01:59:00,37.6,5.8,28.97,SE,137,0.0,0.0,26,0.00,,---,0.00,VWS V14.00,2013-02-12 07:59:00,
2013-02-12 02:00:00,37.6,5.8,28.97,SE,137,0.0,0.0,26,0.00,,---,0.00,VWS V14.00,2013-02-12 08:00:00,
2013-02-12 02:01:00,37.6,5.8,28.97,SE,137,0.0,0.0,26,0.00,,---,0.00,VWS V14.00,2013-02-12 08:01:00,
2013-02-12 02:03:00,37.6,5.8,28.97,SE,137,0.0,0.0,26,0.00,,---,0.00,VWS V14.00,2013-02-12 08:03:00,
2013-02-12 02:04:00,37.6,5.8,28.97,SE,137,0.0,0.0,26,0.00,,---,0.00,VWS V14.00,2013-02-12 08:04:00,
2013-02-12 02:05:00,37.6,5.8,28.97,SE,137,0.0,0.0,26,0.00,,---,0.00,VWS V14.00,2013-02-12 08:05:00,
2013-02-12 02:07:00,37.6,5.8,28.97,SE,137,0.0,0.0,26,0.00,,---,0.00,VWS V14.00,2013-02-12 08:07:00,
2013-02-12 02:08:00,37.6,5.8,28.97,SE,137,0.0,0.0,26,0.00,,---,0.00,VWS V14.00,2013-02-12 08:08:00,
2013-02-12 02:09:00,37.6,5.8,28.97,SE,137,0.0,0.0,26,0.00,,---,0.00,VWS V14.00,2013-02-12 08:09:00,
2013-02-12 02:10:00,37.6,5.8,28.97,SE,137,0.0,0.0,26,0.00,,---,0.00,VWS V14.00,2013-02-12 08:10:00,
2013-02-12 02:12:00,37.8,6.0,28.97,SE,137,0.0,0.0,26,0.00,,---,0.00,VWS V14.00,2013-02-12 08:12:00,
2013-02-12 02:13:00,37.9,6.1,28.97,SE,137,0.0,0.0,26,0.00,,---,0.00,VWS V14.00,2013-02-12 08:13:00,
2013-02-12 02:14:00,37.9,6.1,28.97,SE,137,0.0,0.0,26,0.00,,---,0.00,VWS V14.00,2013-02-12 08:14:00,
2013-02-12 02:15:00,37.9,6.1,28.97,SE,137,0.0,0.0,26,0.00,,---,0.00,VWS V14.00,2013-02-12 08:15:00,
2013-02-12 02:17:00,37.9,6.1,28.97,SE,137,0.0,0.0,26,0.00,,---,0.00,VWS V14.00,2013-02-12 08:17:00,
2013-02-12 02:18:00,37.9,6.1,28.97,SE,137,0.0,0.0,26,0.00,,---,0.00,VWS V14.00,2013-02-12 08:18:00,
2013-02-12 02:19:00,37.9,6.1,28.97,SE,137,0.0,0.0,26,0.00,,---,0.00,VWS V14.00,2013-02-12 08:19:00,
2013-02-12 02:20:00,37.9,6.1,28.94,SE,137,0.0,0.0,26,0.00,,---,0.00,VWS V14.00,2013-02-12 08:20:00,
2013-02-12 02:22:00,38.1,6.3,28.94,SE,137,0.0,0.0,26,0.00,,---,0.00,VWS V14.00,2013-02-12 08:22:00,
2013-02-12 02:23:00,38.1,6.3,28.94,SE,137,0.0,0.0,26,0.00,,---,0.00,VWS V14.00,2013-02-12 08:23:00,
2013-02-12 02:24:00,38.1,6.3,28.94,SE,137,0.0,0.0,26,0.00,,---,0.00,VWS V14.00,2013-02-12 08:24:00,
2013-02-12 02:25:00,38.1,6.3,28.94,SE,137,0.0,0.0,26,0.00,,---,0.00,VWS V14.00,2013-02-12 08:25:00,
2013-02-12 02:27:00,38.1,6.3,28.94,SE,137,0.0,0.0,26,0.00,,---,0.00,VWS V14.00,2013-02-12 08:27:00,
2013-02-12 02:28:00,38.1,6.3,28.94,SE,137,0.0,0.0,26,0.00,,---,0.00,VWS V14.00,2013-02-12 08:28:00,
2013-02-12 02:29:00,37.9,6.1,28.94,SE,137,0.0,0.0,26,0.00,,---,0.00,VWS V14.00,2013-02-12 08:29:00,
2013-02-12 02:30:00,37.9,6.1,28.94,SE,137,0.0,0.0,26,0.00,,---,0.00,VWS V14.00,2013-02-12 08:30:00,
2013-02-12 02:32:00,37.9,6.1,28.94,SE,137,0.0,0.0,26,0.00,,---,0.00,VWS V14.00,2013-02-12 08:32:00,
2013-02-12 02:34:00,37.9,6.1,28.94,SE,137,0.0,0.0,26,0.00,,---,0.00,VWS V14.00,2013-02-12 08:34:00,
2013-02-12 02:35:00,37.8,6.0,28.94,SE,137,0.0,0.0,26,0.00,,---,0.00,VWS V14.00,2013-02-12 08:35:00,
2013-02-12 02:37:00,37.8,4.2,28.94,SE,137,0.0,0.0,24,0.00,,---,0.00,VWS V14.00,2013-02-12 08:37:00,
2013-02-12 02:39:00,37.8,4.2,28.94,SE,137,0.0,0.0,24,0.00,,---,0.00,VWS V14.00,2013-02-12 08:39:00,
2013-02-12 02:40:00,37.8,4.2,28.94,SE,137,0.0,0.0,24,0.00,,---,0.00,VWS V14.00,2013-02-12 08:40:00,
2013-02-12 02:42:00,37.6,4.1,28.94,SE,137,0.0,0.0,24,0.00,,---,0.00,VWS V14.00,2013-02-12 08:42:00,
2013-02-12 02:44:00,37.6,4.1,28.94,North,10,0.0,0.0,24,0.00,,---,0.00,VWS V14.00,2013-02-12 08:44:00,
2013-02-12 02:45:00,37.6,4.1,28.94,North,357,2.2,2.2,24,0.00,,---,0.00,VWS V14.00,2013-02-12 08:45:00,
2013-02-12 02:47:00,37.9,4.4,28.94,North,357,0.0,2.2,24,0.00,,---,0.00,VWS V14.00,2013-02-12 08:47:00,
2013-02-12 02:49:00,37.9,4.4,28.94,North,357,0.0,0.0,24,0.00,,---,0.00,VWS V14.00,2013-02-12 08:49:00,
2013-02-12 02:50:00,37.9,4.4,28.94,North,357,0.0,0.0,24,0.00,,---,0.00,VWS V14.00,2013-02-12 08:50:00,
2013-02-12 02:52:00,37.9,4.4,28.97,North,357,0.0,0.0,24,0.00,,---,0.00,VWS V14.00,2013-02-12 08:52:00,
2013-02-12 02:54:00,37.9,4.4,28.97,North,357,0.0,0.0,24,0.00,,---,0.00,VWS V14.00,2013-02-12 08:54:00,
2013-02-12 02:55:00,37.6,4.1,28.97,North,357,0.0,0.0,24,0.00,,---,0.00,VWS V14.00,2013-02-12 08:55:00,
2013-02-12 02:57:00,37.6,4.1,28.97,North,357,0.0,0.0,24,0.00,,---,0.00,VWS V14.00,2013-02-12 08:57:00,
2013-02-12 02:59:00,37.4,3.9,28.97,North,357,0.0,0.0,24,0.00,,---,0.00,VWS V14.00,2013-02-12 08:59:00,
2013-02-12 03:00:00,37.4,3.9,28.97,North,357,0.0,0.0,24,0.00,,---,0.00,VWS V14.00,2013-02-12 09:00:00,
2013-02-12 03:02:00,37.2,3.8,28.97,North,357,0.0,0.0,24,0.00,,---,0.00,VWS V14.00,2013-02-12 09:02:00,
2013-02-12 03:04:00,37.2,3.8,28.94,North,357,0.0,0.0,24,0.00,,---,0.00,VWS V14.00,2013-02-12 09:04:00,
2013-02-12 03:05:00,37.2,3.8,28.94,North,357,0.0,0.0,24,0.00,,---,0.00,VWS V14.00,2013-02-12 09:05:00,
2013-02-12 03:07:00,37.2,3.8,28.94,North,357,0.0,0.0,24,0.00,,---,0.00,VWS V14.00,2013-02-12 09:07:00,
2013-02-12 03:09:00,37.2,3.8,28.94,North,357,0.0,0.0,24,0.00,,---,0.00,VWS V14.00,2013-02-12 09:09:00,
2013-02-12 03:10:00,37.2,3.8,28.94,North,357,0.0,0.0,24,0.00,,---,0.00,VWS V14.00,2013-02-12 09:10:00,
2013-02-12 03:13:00,37.0,3.6,28.94,North,357,0.0,0.0,24,0.00,,---,0.00,VWS V14.00,2013-02-12 09:13:00,
2013-02-12 03:14:00,37.0,3.6,28.94,North,357,0.0,0.0,24,0.00,,---,0.00,VWS V14.00,2013-02-12 09:14:00,
2013-02-12 03:15:00,37.0,3.6,28.94,North,357,0.0,0.0,24,0.00,,---,0.00,VWS V14.00,2013-02-12 09:15:00,
2013-02-12 03:16:00,37.0,3.6,28.94,North,357,0.0,0.0,24,0.00,,---,0.00,VWS V14.00,2013-02-12 09:16:00,
2013-02-12 03:18:00,37.0,3.6,28.94,North,357,0.0,0.0,24,0.00,,---,0.00,VWS V14.00,2013-02-12 09:18:00,
2013-02-12 03:19:00,37.0,3.6,28.94,North,357,0.0,0.0,24,0.00,,---,0.00,VWS V14.00,2013-02-12 09:19:00,
2013-02-12 03:21:00,37.0,3.6,28.94,North,357,0.0,0.0,24,0.00,,---,0.00,VWS V14.00,2013-02-12 09:21:00,
2013-02-12 03:23:00,37.4,3.9,28.94,North,357,0.0,0.0,24,0.00,,---,0.00,VWS V14.00,2013-02-12 09:23:00,
2013-02-12 03:25:00,37.4,3.9,28.94,North,357,0.0,0.0,24,0.00,,---,0.00,VWS V14.00,2013-02-12 09:25:00,
2013-02-12 03:26:00,37.4,3.9,28.94,North,357,0.0,0.0,24,0.00,,---,0.00,VWS V14.00,2013-02-12 09:26:00,
2013-02-12 03:28:00,37.4,3.9,28.94,North,357,0.0,0.0,24,0.00,,---,0.00,VWS V14.00,2013-02-12 09:28:00,
2013-02-12 03:30:00,37.4,3.9,28.94,North,357,0.0,0.0,24,0.00,,---,0.00,VWS V14.00,2013-02-12 09:30:00,
2013-02-12 03:31:00,37.4,3.9,28.94,North,357,0.0,0.0,24,0.00,,---,0.00,VWS V14.00,2013-02-12 09:31:00,
2013-02-12 03:33:00,37.4,3.9,28.94,North,357,0.0,0.0,24,0.00,,---,0.00,VWS V14.00,2013-02-12 09:33:00,
2013-02-12 03:35:00,37.4,3.9,28.94,North,357,0.0,0.0,24,0.00,,---,0.00,VWS V14.00,2013-02-12 09:35:00,
2013-02-12 03:36:00,37.4,3.9,28.94,North,357,0.0,0.0,24,0.00,,---,0.00,VWS V14.00,2013-02-12 09:36:00,
2013-02-12 03:38:00,37.4,3.9,28.94,North,357,0.0,0.0,24,0.00,,---,0.00,VWS V14.00,2013-02-12 09:38:00,
2013-02-12 03:40:00,37.6,4.1,28.94,North,357,0.0,0.0,24,0.00,,---,0.00,VWS V14.00,2013-02-12 09:40:00,
2013-02-12 03:41:00,37.6,4.1,28.94,North,357,0.0,0.0,24,0.00,,---,0.00,VWS V14.00,2013-02-12 09:41:00,
2013-02-12 03:43:00,37.6,4.1,28.94,North,357,0.0,0.0,24,0.00,,---,0.00,VWS V14.00,2013-02-12 09:43:00,
2013-02-12 03:45:00,37.6,4.1,28.94,North,357,0.0,0.0,24,0.00,,---,0.00,VWS V14.00,2013-02-12 09:45:00,
2013-02-12 03:46:00,37.6,4.1,28.94,North,357,0.0,0.0,24,0.00,,---,0.00,VWS V14.00,2013-02-12 09:46:00,
2013-02-12 03:48:00,37.6,4.1,28.94,North,357,0.0,0.0,24,0.00,,---,0.00,VWS V14.00,2013-02-12 09:48:00,
2013-02-12 03:50:00,37.6,4.1,28.94,North,357,0.0,0.0,24,0.00,,---,0.00,VWS V14.00,2013-02-12 09:50:00,
2013-02-12 03:51:00,37.6,4.1,28.94,North,357,0.0,0.0,24,0.00,,---,0.00,VWS V14.00,2013-02-12 09:51:00,
2013-02-12 03:53:00,37.6,4.1,28.94,North,357,0.0,0.0,24,0.00,,---,0.00,VWS V14.00,2013-02-12 09:53:00,
2013-02-12 03:55:00,37.6,4.1,28.94,North,357,0.0,0.0,24,0.00,,---,0.00,VWS V14.00,2013-02-12 09:55:00,
2013-02-12 03:56:00,37.6,4.1,28.94,North,357,0.0,0.0,24,0.00,,---,0.00,VWS V14.00,2013-02-12 09:56:00,
2013-02-12 03:58:00,37.6,4.1,28.94,North,357,0.0,0.0,24,0.00,,---,0.00,VWS V14.00,2013-02-12 09:58:00,
2013-02-12 04:00:00,37.6,4.1,28.94,North,357,0.0,0.0,24,0.00,,---,0.00,VWS V14.00,2013-02-12 10:00:00,
2013-02-12 04:01:00,37.6,4.1,28.94,North,357,0.0,0.0,24,0.00,,---,0.00,VWS V14.00,2013-02-12 10:01:00,
2013-02-12 04:03:00,37.6,4.1,28.94,North,357,0.0,0.0,24,0.00,,---,0.00,VWS V14.00,2013-02-12 10:03:00,
2013-02-12 04:05:00,37.9,4.4,28.94,North,357,0.0,0.0,24,0.00,,---,0.00,VWS V14.00,2013-02-12 10:05:00,
2013-02-12 04:06:00,37.9,4.4,28.94,North,357,0.0,0.0,24,0.00,,---,0.00,VWS V14.00,2013-02-12 10:06:00,
2013-02-12 04:08:00,37.9,4.4,28.94,North,357,0.0,0.0,24,0.00,,---,0.00,VWS V14.00,2013-02-12 10:08:00,
2013-02-12 04:10:00,37.9,4.4,28.94,North,357,0.0,0.0,24,0.00,,---,0.00,VWS V14.00,2013-02-12 10:10:00,
2013-02-12 04:11:00,37.9,4.4,28.94,North,357,0.0,0.0,24,0.00,,---,0.00,VWS V14.00,2013-02-12 10:11:00,
2013-02-12 04:12:00,37.9,4.4,28.94,North,357,0.0,0.0,24,0.00,,---,0.00,VWS V14.00,2013-02-12 10:12:00,
2013-02-12 04:13:00,37.9,4.4,28.94,North,357,0.0,0.0,24,0.00,,---,0.00,VWS V14.00,2013-02-12 10:13:00,
2013-02-12 04:15:00,37.9,4.4,28.94,North,357,0.0,0.0,24,0.00,,---,0.00,VWS V14.00,2013-02-12 10:15:00,
2013-02-12 04:16:00,37.9,4.4,28.94,North,357,2.2,2.2,24,0.00,,---,0.00,VWS V14.00,2013-02-12 10:16:00,
2013-02-12 04:17:00,37.9,4.4,28.94,North,357,2.2,2.2,24,0.00,,---,0.00,VWS V14.00,2013-02-12 10:17:00,
2013-02-12 04:18:00,37.9,4.4,28.94,North,357,0.0,2.2,24,0.00,,---,0.00,VWS V14.00,2013-02-12 10:18:00,
2013-02-12 04:20:00,37.9,4.4,28.94,North,357,0.0,0.0,24,0.00,,---,0.00,VWS V14.00,2013-02-12 10:20:00,
2013-02-12 04:21:00,37.9,4.4,28.94,North,357,0.0,0.0,24,0.00,,---,0.00,VWS V14.00,2013-02-12 10:21:00,
2013-02-12 04:22:00,38.1,4.5,28.94,North,357,0.0,0.0,24,0.00,,---,0.00,VWS V14.00,2013-02-12 10:22:00,
2013-02-12 04:23:00,38.1,4.5,28.97,North,357,0.0,0.0,24,0.00,,---,0.00,VWS V14.00,2013-02-12 10:23:00,
2013-02-12 04:25:00,37.9,6.1,28.97,North,357,0.0,0.0,26,0.00,,---,0.00,VWS V14.00,2013-02-12 10:25:00,
2013-02-12 04:26:00,37.9,6.1,28.97,North,357,0.0,0.0,26,0.00,,---,0.00,VWS V14.00,2013-02-12 10:26:00,
2013-02-12 04:27:00,37.9,6.1,28.97,North,357,0.0,0.0,26,0.00,,---,0.00,VWS V14.00,2013-02-12 10:27:00,
2013-02-12 04:28:00,37.9,6.1,28.97,North,357,0.0,0.0,26,0.00,,---,0.00,VWS V14.00,2013-02-12 10:28:00,
2013-02-12 04:30:00,37.9,4.4,28.97,North,357,0.0,0.0,24,0.00,,---,0.00,VWS V14.00,2013-02-12 10:30:00,
2013-02-12 04:31:00,37.9,4.4,28.97,North,357,0.0,0.0,24,0.00,,---,0.00,VWS V14.00,2013-02-12 10:31:00,
2013-02-12 04:32:00,37.9,4.4,28.97,North,357,0.0,0.0,24,0.00,,---,0.00,VWS V14.00,2013-02-12 10:32:00,
2013-02-12 04:33:00,37.9,4.4,28.97,North,357,0.0,0.0,24,0.00,,---,0.00,VWS V14.00,2013-02-12 10:33:00,
2013-02-12 04:35:00,37.9,4.4,28.97,North,357,0.0,0.0,24,0.00,,---,0.00,VWS V14.00,2013-02-12 10:35:00,
2013-02-12 04:36:00,37.9,4.4,28.97,North,357,0.0,0.0,24,0.00,,---,0.00,VWS V14.00,2013-02-12 10:36:00,
2013-02-12 04:37:00,37.9,4.4,28.97,North,357,0.0,0.0,24,0.00,,---,0.00,VWS V14.00,2013-02-12 10:37:00,
2013-02-12 04:38:00,38.1,4.5,28.97,North,357,0.0,0.0,24,0.00,,---,0.00,VWS V14.00,2013-02-12 10:38:00,
2013-02-12 04:40:00,38.1,4.5,28.97,North,357,0.0,0.0,24,0.00,,---,0.00,VWS V14.00,2013-02-12 10:40:00,
2013-02-12 04:41:00,38.1,4.5,28.97,North,357,0.0,0.0,24,0.00,,---,0.00,VWS V14.00,2013-02-12 10:41:00,
2013-02-12 04:42:00,38.1,4.5,28.97,North,357,0.0,0.0,24,0.00,,---,0.00,VWS V14.00,2013-02-12 10:42:00,
2013-02-12 04:43:00,38.1,4.5,28.97,North,357,0.0,0.0,24,0.00,,---,0.00,VWS V14.00,2013-02-12 10:43:00,
2013-02-12 04:45:00,38.1,4.5,28.97,North,357,0.0,0.0,24,0.00,,---,0.00,VWS V14.00,2013-02-12 10:45:00,
2013-02-12 04:47:00,38.1,4.5,28.97,North,357,0.0,0.0,24,0.00,,---,0.00,VWS V14.00,2013-02-12 10:47:00,
2013-02-12 04:48:00,38.1,4.5,28.97,North,357,0.0,0.0,24,0.00,,---,0.00,VWS V14.00,2013-02-12 10:48:00,
2013-02-12 04:50:00,38.1,4.5,28.97,North,357,0.0,0.0,24,0.00,,---,0.00,VWS V14.00,2013-02-12 10:50:00,
2013-02-12 04:52:00,38.1,4.5,28.97,North,357,0.0,0.0,24,0.00,,---,0.00,VWS V14.00,2013-02-12 10:52:00,
2013-02-12 04:54:00,38.1,4.5,28.97,North,357,0.0,0.0,24,0.00,,---,0.00,VWS V14.00,2013-02-12 10:54:00,
2013-02-12 04:56:00,38.1,4.5,28.97,North,357,0.0,0.0,24,0.00,,---,0.00,VWS V14.00,2013-02-12 10:56:00,
2013-02-12 04:57:00,38.1,4.5,28.97,North,357,0.0,0.0,24,0.00,,---,0.00,VWS V14.00,2013-02-12 10:57:00,
2013-02-12 04:59:00,38.1,4.5,28.97,North,357,0.0,0.0,24,0.00,,---,0.00,VWS V14.00,2013-02-12 10:59:00,
2013-02-12 05:01:00,38.1,4.5,28.97,North,357,0.0,0.0,24,0.00,,---,0.00,VWS V14.00,2013-02-12 11:01:00,
2013-02-12 05:02:00,38.1,4.5,28.97,North,357,0.0,0.0,24,0.00,,---,0.00,VWS V14.00,2013-02-12 11:02:00,
2013-02-12 05:03:00,38.1,4.5,28.94,North,357,0.0,0.0,24,0.00,,---,0.00,VWS V14.00,2013-02-12 11:03:00,
2013-02-12 05:04:00,38.1,4.5,28.94,North,357,0.0,0.0,24,0.00,,---,0.00,VWS V14.00,2013-02-12 11:04:00,
2013-02-12 05:06:00,38.1,4.5,28.94,North,357,0.0,0.0,24,0.00,,---,0.00,VWS V14.00,2013-02-12 11:06:00,
2013-02-12 05:07:00,38.1,4.5,28.94,North,357,0.0,0.0,24,0.00,,---,0.00,VWS V14.00,2013-02-12 11:07:00,
2013-02-12 05:08:00,38.1,4.5,28.94,North,357,0.0,0.0,24,0.00,,---,0.00,VWS V14.00,2013-02-12 11:08:00,
2013-02-12 05:09:00,38.1,4.5,28.94,North,357,0.0,0.0,24,0.00,,---,0.00,VWS V14.00,2013-02-12 11:09:00,
2013-02-12 05:11:00,38.1,4.5,28.94,North,357,0.0,0.0,24,0.00,,---,0.00,VWS V14.00,2013-02-12 11:11:00,
2013-02-12 05:12:00,38.1,4.5,28.94,North,357,0.0,0.0,24,0.00,,---,0.00,VWS V14.00,2013-02-12 11:12:00,
2013-02-12 05:13:00,38.1,4.5,28.94,East,97,0.0,0.0,24,0.00,,---,0.00,VWS V14.00,2013-02-12 11:13:00,
2013-02-12 05:14:00,38.1,4.5,28.94,East,97,0.0,0.0,24,0.00,,---,0.00,VWS V14.00,2013-02-12 11:14:00,
2013-02-12 05:16:00,38.1,4.5,28.94,East,97,0.0,0.0,24,0.00,,---,0.00,VWS V14.00,2013-02-12 11:16:00,
2013-02-12 05:18:00,38.1,4.5,28.94,East,97,0.0,0.0,24,0.00,,---,0.00,VWS V14.00,2013-02-12 11:18:00,
2013-02-12 05:19:00,38.1,4.5,28.94,East,97,0.0,0.0,24,0.00,,---,0.00,VWS V14.00,2013-02-12 11:19:00,
2013-02-12 05:21:00,38.1,4.5,28.94,SE,130,0.0,0.0,24,0.00,,---,0.00,VWS V14.00,2013-02-12 11:21:00,
2013-02-12 05:23:00,38.1,4.5,28.94,SE,130,0.0,0.0,24,0.00,,---,0.00,VWS V14.00,2013-02-12 11:23:00,
2013-02-12 05:24:00,38.1,4.5,28.94,ESE,117,0.0,0.0,24,0.00,,---,0.00,VWS V14.00,2013-02-12 11:24:00,
2013-02-12 05:26:00,38.1,4.5,28.94,East,94,0.0,0.0,24,0.00,,---,0.00,VWS V14.00,2013-02-12 11:26:00,
2013-02-12 05:27:00,38.1,4.5,28.94,East,94,0.0,0.0,24,0.00,,---,0.00,VWS V14.00,2013-02-12 11:27:00,
2013-02-12 05:28:00,38.1,4.5,28.94,NNE,27,0.0,0.0,24,0.00,,---,0.00,VWS V14.00,2013-02-12 11:28:00,
2013-02-12 05:29:00,38.1,4.5,28.94,NNE,27,0.0,0.0,24,0.00,,---,0.00,VWS V14.00,2013-02-12 11:29:00,
2013-02-12 05:31:00,38.1,4.5,28.94,NNE,31,2.7,2.7,24,0.00,,---,0.00,VWS V14.00,2013-02-12 11:31:00,
2013-02-12 05:33:00,38.1,4.5,28.94,NNE,31,2.7,2.7,24,0.00,,---,0.00,VWS V14.00,2013-02-12 11:33:00,
2013-02-12 05:34:00,38.1,4.5,28.94,NNE,31,2.7,2.7,24,0.00,,---,0.00,VWS V14.00,2013-02-12 11:34:00,
2013-02-12 05:37:00,38.1,4.5,28.94,NNE,31,2.7,2.7,24,0.00,,---,0.00,VWS V14.00,2013-02-12 11:37:00,
2013-02-12 05:38:00,38.1,4.5,28.94,NNE,31,2.7,2.7,24,0.00,,---,0.00,VWS V14.00,2013-02-12 11:38:00,
2013-02-12 05:39:00,38.1,4.5,28.94,NNE,31,2.7,2.7,24,0.00,,---,0.00,VWS V14.00,2013-02-12 11:39:00,
2013-02-12 05:42:00,38.1,4.5,28.94,NNE,31,2.7,2.7,24,0.00,,---,0.00,VWS V14.00,2013-02-12 11:42:00,
2013-02-12 05:43:00,38.1,4.5,28.94,NNE,31,2.7,2.7,24,0.00,,---,0.00,VWS V14.00,2013-02-12 11:43:00,
2013-02-12 05:44:00,38.1,4.5,28.94,NW,305,0.0,2.7,24,0.00,,---,0.00,VWS V14.00,2013-02-12 11:44:00,
2013-02-12 05:45:00,38.1,4.5,28.94,SSW,207,0.0,0.0,24,0.00,,---,0.00,VWS V14.00,2013-02-12 11:45:00,
2013-02-12 05:47:00,38.1,4.5,28.94,WNW,295,0.0,0.0,24,0.00,,---,0.00,VWS V14.00,2013-02-12 11:47:00,
2013-02-12 05:48:00,37.9,4.4,28.94,WNW,295,0.0,0.0,24,0.00,,---,0.00,VWS V14.00,2013-02-12 11:48:00,
2013-02-12 05:49:00,37.9,4.4,28.94,WNW,295,0.0,0.0,24,0.00,,---,0.00,VWS V14.00,2013-02-12 11:49:00,
2013-02-12 05:50:00,37.9,4.4,28.94,WNW,295,0.0,0.0,24,0.00,,---,0.00,VWS V14.00,2013-02-12 11:50:00,
2013-02-12 05:53:00,37.9,4.4,28.94,WNW,295,0.0,0.0,24,0.00,,---,0.00,VWS V14.00,2013-02-12 11:53:00,
2013-02-12 05:54:00,37.9,4.4,28.94,WNW,295,0.0,0.0,24,0.00,,---,0.00,VWS V14.00,2013-02-12 11:54:00,
2013-02-12 05:55:00,37.9,4.4,28.94,NNE,13,0.0,0.0,24,0.00,,---,0.00,VWS V14.00,2013-02-12 11:55:00,
2013-02-12 05:58:00,37.8,4.2,28.94,WNW,294,0.0,0.0,24,0.00,,---,0.00,VWS V14.00,2013-02-12 11:58:00,
2013-02-12 05:59:00,37.8,4.2,28.94,NNW,329,0.0,0.0,24,0.00,,---,0.00,VWS V14.00,2013-02-12 11:59:00,
2013-02-12 06:00:00,37.8,4.2,28.94,NNW,329,0.0,0.0,24,0.00,,---,0.00,VWS V14.00,2013-02-12 12:00:00,
2013-02-12 06:03:00,37.8,4.2,28.91,NNW,329,0.0,0.0,24,0.00,,---,0.00,VWS V14.00,2013-02-12 12:03:00,
2013-02-12 06:04:00,37.8,4.2,28.91,NNW,329,0.0,0.0,24,0.00,,---,0.00,VWS V14.00,2013-02-12 12:04:00,
2013-02-12 06:05:00,37.8,4.2,28.91,NNW,329,0.0,0.0,24,0.00,,---,0.00,VWS V14.00,2013-02-12 12:05:00,
2013-02-12 06:08:00,37.6,4.1,28.91,NNW,329,0.0,0.0,24,0.00,,---,0.00,VWS V14.00,2013-02-12 12:08:00,
2013-02-12 06:09:00,37.6,4.1,28.91,NNW,329,0.0,0.0,24,0.00,,---,0.00,VWS V14.00,2013-02-12 12:09:00,
2013-02-12 06:11:00,37.6,4.1,28.91,East,100,0.0,0.0,24,0.00,,---,0.00,VWS V14.00,2013-02-12 12:11:00,
2013-02-12 06:13:00,37.6,4.1,28.91,SE,141,0.0,0.0,24,0.00,,---,0.00,VWS V14.00,2013-02-12 12:13:00,
2013-02-12 06:14:00,37.8,6.0,28.91,SE,141,0.0,0.0,26,0.00,,---,0.00,VWS V14.00,2013-02-12 12:14:00,
2013-02-12 06:16:00,37.8,6.0,28.91,SE,141,0.0,0.0,26,0.00,,---,0.00,VWS V14.00,2013-02-12 12:16:00,
2013-02-12 06:18:00,37.8,6.0,28.91,SE,144,0.0,0.0,26,0.00,,---,0.00,VWS V14.00,2013-02-12 12:18:00,
2013-02-12 06:19:00,37.8,6.0,28.91,SE,144,0.0,0.0,26,0.00,,---,0.00,VWS V14.00,2013-02-12 12:19:00,
2013-02-12 06:21:00,37.8,6.0,28.91,SE,144,0.0,0.0,26,0.00,,---,0.00,VWS V14.00,2013-02-12 12:21:00,
2013-02-12 06:24:00,37.8,6.0,28.91,SE,144,0.0,0.0,26,0.00,,---,0.00,VWS V14.00,2013-02-12 12:24:00,
2013-02-12 06:25:00,37.8,6.0,28.91,SE,141,0.0,0.0,26,0.00,,---,0.00,VWS V14.00,2013-02-12 12:25:00,
2013-02-12 06:26:00,37.8,6.0,28.91,SE,141,0.0,0.0,26,0.00,,---,0.00,VWS V14.00,2013-02-12 12:26:00,
2013-02-12 06:29:00,37.8,6.0,28.91,SE,141,0.0,0.0,26,0.00,,---,0.00,VWS V14.00,2013-02-12 12:29:00,
2013-02-12 06:30:00,37.8,6.0,28.91,ESE,105,0.0,0.0,26,0.00,,---,0.00,VWS V14.00,2013-02-12 12:30:00,
2013-02-12 06:31:00,37.9,6.1,28.91,ESE,105,0.0,0.0,26,0.00,,---,0.00,VWS V14.00,2013-02-12 12:31:00,
2013-02-12 06:34:00,37.9,6.1,28.94,SE,142,0.0,0.0,26,0.00,,---,0.00,VWS V14.00,2013-02-12 12:34:00,
2013-02-12 06:35:00,37.9,6.1,28.94,SE,142,0.0,0.0,26,0.00,,---,0.00,VWS V14.00,2013-02-12 12:35:00,
2013-02-12 06:36:00,37.9,6.1,28.94,ENE,74,0.0,0.0,26,0.00,,---,0.00,VWS V14.00,2013-02-12 12:36:00,
2013-02-12 06:39:00,37.9,6.1,28.94,North,10,0.0,0.0,26,0.00,,---,0.00,VWS V14.00,2013-02-12 12:39:00,
2013-02-12 06:40:00,37.9,6.1,28.94,North,10,0.0,0.0,26,0.00,,---,0.00,VWS V14.00,2013-02-12 12:40:00,
2013-02-12 06:41:00,37.9,6.1,28.94,North,10,0.0,0.0,26,0.00,,---,0.00,VWS V14.00,2013-02-12 12:41:00,
2013-02-12 06:44:00,37.9,6.1,28.94,North,10,0.0,0.0,26,0.00,,---,0.00,VWS V14.00,2013-02-12 12:44:00,
2013-02-12 06:45:00,37.9,6.1,28.94,North,10,0.0,0.0,26,0.00,,---,0.00,VWS V14.00,2013-02-12 12:45:00,
2013-02-12 06:46:00,37.8,6.0,28.91,ENE,67,0.0,0.0,26,0.00,,---,0.00,VWS V14.00,2013-02-12 12:46:00,
2013-02-12 06:49:00,37.8,6.0,28.91,ENE,67,0.0,0.0,26,0.00,,---,0.00,VWS V14.00,2013-02-12 12:49:00,
2013-02-12 06:50:00,37.8,6.0,28.91,ENE,67,0.0,0.0,26,0.00,,---,0.00,VWS V14.00,2013-02-12 12:50:00,
2013-02-12 06:51:00,37.6,5.8,28.91,ENE,75,0.0,0.0,26,0.00,,---,0.00,VWS V14.00,2013-02-12 12:51:00,
2013-02-12 06:54:00,37.6,8.2,28.91,ENE,75,0.0,0.0,29,0.00,,---,0.00,VWS V14.00,2013-02-12 12:54:00,
2013-02-12 06:55:00,37.6,8.2,28.91,ENE,75,0.0,0.0,29,0.00,,---,0.00,VWS V14.00,2013-02-12 12:55:00,
2013-02-12 06:56:00,37.6,8.2,28.91,ENE,75,0.0,0.0,29,0.00,,---,0.00,VWS V14.00,2013-02-12 12:56:00,
2013-02-12 06:57:00,37.6,8.2,28.91,ENE,75,0.0,0.0,29,0.00,,---,0.00,VWS V14.00,2013-02-12 12:57:00,
2013-02-12 07:00:00,37.2,7.9,28.91,ENE,65,0.0,0.0,29,0.00,,---,0.00,VWS V14.00,2013-02-12 13:00:00,
2013-02-12 07:01:00,37.2,7.9,28.91,ENE,65,0.0,0.0,29,0.00,,---,0.00,VWS V14.00,2013-02-12 13:01:00,
2013-02-12 07:02:00,37.2,7.9,28.91,ENE,65,0.0,0.0,29,0.00,,---,0.00,VWS V14.00,2013-02-12 13:02:00,
2013-02-12 07:05:00,37.0,8.5,28.91,ENE,63,0.0,0.0,30,0.00,,---,0.00,VWS V14.00,2013-02-12 13:05:00,
2013-02-12 07:06:00,37.0,8.5,28.91,ENE,63,0.0,0.0,30,0.00,,---,0.00,VWS V14.00,2013-02-12 13:06:00,
2013-02-12 07:07:00,37.0,8.5,28.91,ENE,63,0.0,0.0,30,0.00,,---,0.00,VWS V14.00,2013-02-12 13:07:00,
2013-02-12 07:10:00,37.0,8.5,28.91,ENE,63,0.0,0.0,30,0.00,,---,0.00,VWS V14.00,2013-02-12 13:10:00,
2013-02-12 07:11:00,37.0,8.5,28.91,ENE,63,0.0,0.0,30,0.00,,---,0.00,VWS V14.00,2013-02-12 13:11:00,
2013-02-12 07:12:00,37.0,8.5,28.91,North,3,2.2,2.2,30,0.00,,---,0.00,VWS V14.00,2013-02-12 13:12:00,
2013-02-12 07:15:00,36.7,8.9,28.91,North,3,2.2,2.2,31,0.00,,---,0.00,VWS V14.00,2013-02-12 13:15:00,
2013-02-12 07:16:00,36.5,8.8,28.91,North,3,2.2,2.2,31,0.00,,---,0.00,VWS V14.00,2013-02-12 13:16:00,
2013-02-12 07:17:00,36.5,8.8,28.91,North,3,2.2,2.2,31,0.00,,---,0.00,VWS V14.00,2013-02-12 13:17:00,
2013-02-12 07:20:00,36.5,8.8,28.91,NE,50,0.0,0.0,31,0.00,,---,0.00,VWS V14.00,2013-02-12 13:20:00,
2013-02-12 07:21:00,36.5,8.8,28.91,East,82,0.0,0.0,31,0.00,,---,0.00,VWS V14.00,2013-02-12 13:21:00,
2013-02-12 07:22:00,36.5,8.8,28.91,East,82,0.0,0.0,31,0.00,,---,0.00,VWS V14.00,2013-02-12 13:22:00,
2013-02-12 07:26:00,36.3,9.3,28.91,North,350,0.0,0.0,32,0.00,,---,0.00,VWS V14.00,2013-02-12 13:26:00,
2013-02-12 07:28:00,36.3,9.3,28.91,North,350,0.0,0.0,32,0.00,,---,0.00,VWS V14.00,2013-02-12 13:28:00,
2013-02-12 07:31:00,36.3,9.3,28.91,North,350,0.0,0.0,32,0.00,,---,0.00,VWS V14.00,2013-02-12 13:31:00,
2013-02-12 07:33:00,36.1,9.8,28.91,North,0,0.0,0.0,33,0.00,,---,0.00,VWS V14.00,2013-02-12 13:33:00,
2013-02-12 07:36:00,36.1,9.8,28.94,North,357,0.0,0.0,33,0.00,,---,0.00,VWS V14.00,2013-02-12 13:36:00,
2013-02-12 07:38:00,36.1,9.8,28.94,North,9,0.0,0.0,33,0.00,,---,0.00,VWS V14.00,2013-02-12 13:38:00,
2013-02-12 07:41:00,36.1,11.8,28.94,North,6,0.0,0.0,36,0.00,,---,0.00,VWS V14.00,2013-02-12 13:41:00,
2013-02-12 07:42:00,36.1,11.8,28.94,North,6,0.0,0.0,36,0.00,,---,0.00,VWS V14.00,2013-02-12 13:42:00,
2013-02-12 07:43:00,36.1,11.8,28.94,North,6,0.0,0.0,36,0.00,,---,0.00,VWS V14.00,2013-02-12 13:43:00,
2013-02-12 07:46:00,36.1,11.8,28.94,North,353,0.0,0.0,36,0.00,,---,0.00,VWS V14.00,2013-02-12 13:46:00,
2013-02-12 07:47:00,36.1,11.8,28.94,North,353,0.0,0.0,36,0.00,,---,0.00,VWS V14.00,2013-02-12 13:47:00,
2013-02-12 07:48:00,36.1,11.8,28.91,North,353,0.0,0.0,36,0.00,,---,0.00,VWS V14.00,2013-02-12 13:48:00,
2013-02-12 07:51:00,35.8,13.3,28.91,North,353,0.0,0.0,39,0.00,,---,0.00,VWS V14.00,2013-02-12 13:51:00,
2013-02-12 07:52:00,35.8,13.3,28.91,North,353,0.0,0.0,39,0.00,,---,0.00,VWS V14.00,2013-02-12 13:52:00,
2013-02-12 07:53:00,35.8,13.3,28.91,North,353,0.0,0.0,39,0.00,,---,0.00,VWS V14.00,2013-02-12 13:53:00,
2013-02-12 07:56:00,35.8,13.3,28.91,North,5,2.7,2.7,39,0.00,,---,0.00,VWS V14.00,2013-02-12 13:56:00,
2013-02-12 07:57:00,35.8,13.3,28.91,North,1,0.0,2.7,39,0.00,,---,0.00,VWS V14.00,2013-02-12 13:57:00,
2013-02-12 07:58:00,35.8,13.3,28.91,North,353,0.0,0.0,39,0.00,,---,0.00,VWS V14.00,2013-02-12 13:58:00,
2013-02-12 08:02:00,35.6,14.2,28.91,North,357,2.2,2.2,41,0.00,,---,0.00,VWS V14.00,2013-02-12 14:02:00,
2013-02-12 08:03:00,35.6,14.8,28.91,NNE,30,2.7,2.7,42,0.00,,---,0.00,VWS V14.00,2013-02-12 14:03:00,
2013-02-12 08:07:00,35.4,14.6,28.91,North,7,0.0,0.0,42,0.00,,---,0.00,VWS V14.00,2013-02-12 14:07:00,
2013-02-12 08:08:00,35.4,14.6,28.91,NNE,17,0.0,0.0,42,0.04,,---,0.04,VWS V14.00,2013-02-12 14:08:00,
2013-02-12 08:12:00,35.4,14.6,28.91,North,8,0.0,0.0,42,0.04,,---,0.04,VWS V14.00,2013-02-12 14:12:00,
2013-02-12 08:13:00,35.4,15.2,28.91,North,0,0.0,0.0,43,0.04,,---,0.04,VWS V14.00,2013-02-12 14:13:00,
2013-02-12 08:17:00,35.4,15.2,28.91,NNE,13,0.0,0.0,43,0.04,,---,0.04,VWS V14.00,2013-02-12 14:17:00,
2013-02-12 08:18:00,35.4,15.2,28.94,North,2,0.0,0.0,43,0.04,,---,0.04,VWS V14.00,2013-02-12 14:18:00,
2013-02-12 08:22:00,35.4,15.2,28.94,NNE,16,2.7,2.7,43,0.04,,---,0.04,VWS V14.00,2013-02-12 14:22:00,
2013-02-12 08:24:00,35.4,15.2,28.94,NNE,16,2.7,2.7,43,0.04,,---,0.04,VWS V14.00,2013-02-12 14:24:00,
2013-02-12 08:27:00,35.4,17.2,28.94,North,0,2.7,2.7,47,0.04,,---,0.04,VWS V14.00,2013-02-12 14:27:00,
2013-02-12 08:28:00,35.4,17.2,28.94,North,0,2.7,2.7,47,0.04,,---,0.04,VWS V14.00,2013-02-12 14:28:00,
2013-02-12 08:29:00,35.4,17.2,28.94,NNE,12,3.1,3.1,47,0.04,,---,0.04,VWS V14.00,2013-02-12 14:29:00,
2013-02-12 08:32:00,35.4,17.7,28.94,NNE,28,3.1,3.1,48,0.04,,---,0.04,VWS V14.00,2013-02-12 14:32:00,
2013-02-12 08:33:00,35.4,17.7,28.94,NNE,28,3.1,3.1,48,0.04,,---,0.04,VWS V14.00,2013-02-12 14:33:00,
2013-02-12 08:34:00,35.4,17.7,28.94,NNE,28,3.1,3.1,48,0.04,,---,0.04,VWS V14.00,2013-02-12 14:34:00,
2013-02-12 08:38:00,35.4,17.7,28.94,NNE,24,0.0,3.1,48,0.08,,---,0.08,VWS V14.00,2013-02-12 14:38:00,
2013-02-12 08:39:00,35.4,17.7,28.94,NNE,24,0.0,0.0,48,0.08,,---,0.08,VWS V14.00,2013-02-12 14:39:00,
2013-02-12 08:43:00,35.2,17.5,28.94,NNE,17,0.0,0.0,48,0.08,,---,0.08,VWS V14.00,2013-02-12 14:43:00,
2013-02-12 08:44:00,35.2,17.5,28.94,North,2,0.0,0.0,48,0.08,,---,0.08,VWS V14.00,2013-02-12 14:44:00,
2013-02-12 08:48:00,35.2,17.5,28.94,NNE,25,0.0,0.0,48,0.08,,---,0.08,VWS V14.00,2013-02-12 14:48:00,
2013-02-12 08:49:00,35.2,17.5,28.94,NNE,25,0.0,0.0,48,0.08,,---,0.08,VWS V14.00,2013-02-12 14:49:00,
2013-02-12 08:53:00,35.2,18.0,28.94,NNE,12,0.0,0.0,49,0.08,,---,0.08,VWS V14.00,2013-02-12 14:53:00,
2013-02-12 08:54:00,35.2,18.0,28.94,NNE,12,0.0,0.0,49,0.08,,---,0.08,VWS V14.00,2013-02-12 14:54:00,
2013-02-12 08:58:00,35.2,18.5,28.94,North,7,0.0,0.0,50,0.08,,---,0.08,VWS V14.00,2013-02-12 14:58:00,
2013-02-12 08:59:00,35.2,18.5,28.94,North,7,0.0,0.0,50,0.08,,---,0.08,VWS V14.00,2013-02-12 14:59:00,
2013-02-12 09:03:00,35.2,18.5,28.94,NNE,22,0.0,0.0,50,0.08,,---,0.08,VWS V14.00,2013-02-12 15:03:00,
2013-02-12 09:04:00,35.2,18.5,28.94,NNE,22,0.0,0.0,50,0.08,,---,0.08,VWS V14.00,2013-02-12 15:04:00,
2013-02-12 09:08:00,35.1,18.8,28.94,North,7,4.0,4.0,51,0.04,,---,0.08,VWS V14.00,2013-02-12 15:08:00,
2013-02-12 09:09:00,35.1,18.8,28.94,North,4,3.6,4.0,51,0.04,,---,0.08,VWS V14.00,2013-02-12 15:09:00,
2013-02-12 09:10:00,35.1,18.8,28.94,North,353,3.6,3.6,51,0.08,,---,0.12,VWS V14.00,2013-02-12 15:10:00,
2013-02-12 09:13:00,35.1,18.8,28.94,NNE,23,3.6,3.6,51,0.08,,---,0.12,VWS V14.00,2013-02-12 15:13:00,
2013-02-12 09:14:00,34.9,18.6,28.94,NNE,23,3.6,3.6,51,0.08,,---,0.12,VWS V14.00,2013-02-12 15:14:00,
2013-02-12 09:15:00,34.9,18.6,28.94,NNE,23,3.6,3.6,51,0.08,,---,0.12,VWS V14.00,2013-02-12 15:15:00,
2013-02-12 09:18:00,34.9,18.6,28.91,NNE,16,2.7,2.7,51,0.08,,---,0.12,VWS V14.00,2013-02-12 15:18:00,
2013-02-12 09:19:00,34.9,18.6,28.91,NNE,16,2.7,2.7,51,0.08,,---,0.12,VWS V14.00,2013-02-12 15:19:00,
2013-02-12 09:21:00,34.7,18.0,28.91,NNE,16,2.7,2.7,50,0.08,,---,0.12,VWS V14.00,2013-02-12 15:21:00,
2013-02-12 09:23:00,34.5,17.8,28.91,North,353,3.1,3.1,50,0.08,,---,0.12,VWS V14.00,2013-02-12 15:23:00,
2013-02-12 09:24:00,34.5,17.8,28.91,North,353,3.1,3.1,50,0.08,,---,0.12,VWS V14.00,2013-02-12 15:24:00,
2013-02-12 09:26:00,34.5,17.8,28.91,WNW,294,2.2,2.2,50,0.08,,---,0.12,VWS V14.00,2013-02-12 15:26:00,
2013-02-12 09:29:00,34.5,17.8,28.91,WNW,294,2.2,2.2,50,0.08,,---,0.12,VWS V14.00,2013-02-12 15:29:00,
2013-02-12 09:31:00,34.5,17.8,28.91,North,7,0.0,2.7,50,0.08,,---,0.12,VWS V14.00,2013-02-12 15:31:00,
2013-02-12 09:34:00,34.0,17.8,28.91,North,7,0.0,0.0,51,0.04,,---,0.12,VWS V14.00,2013-02-12 15:34:00,
2013-02-12 09:36:00,34.0,17.8,28.91,NNE,16,0.0,3.6,51,0.04,,---,0.12,VWS V14.00,2013-02-12 15:36:00,
2013-02-12 09:39:00,34.0,17.8,28.91,West,267,0.0,0.0,51,0.04,,---,0.12,VWS V14.00,2013-02-12 15:39:00,
2013-02-12 09:40:00,34.0,17.8,28.91,West,267,0.0,0.0,51,0.04,,---,0.12,VWS V14.00,2013-02-12 15:40:00,
2013-02-12 09:41:00,34.0,17.8,28.91,West,267,0.0,0.0,51,0.04,,---,0.12,VWS V14.00,2013-02-12 15:41:00,
2013-02-12 09:44:00,34.0,17.8,28.91,North,3,0.0,0.0,51,0.04,,---,0.12,VWS V14.00,2013-02-12 15:44:00,
2013-02-12 09:45:00,34.0,17.8,28.91,North,3,0.0,0.0,51,0.04,,---,0.12,VWS V14.00,2013-02-12 15:45:00,
2013-02-12 09:46:00,34.0,17.8,28.91,North,3,0.0,0.0,51,0.04,,---,0.12,VWS V14.00,2013-02-12 15:46:00,
2013-02-12 09:50:00,34.0,18.2,28.91,North,11,0.0,0.0,52,0.04,,---,0.12,VWS V14.00,2013-02-12 15:50:00,
2013-02-12 09:52:00,34.0,18.2,28.91,North,11,0.0,0.0,52,0.04,,---,0.12,VWS V14.00,2013-02-12 15:52:00,
2013-02-12 09:55:00,34.0,18.2,28.91,North,11,0.0,0.0,52,0.04,,---,0.12,VWS V14.00,2013-02-12 15:55:00,
2013-02-12 09:57:00,34.0,17.8,28.91,NE,34,0.0,0.0,51,0.04,,---,0.12,VWS V14.00,2013-02-12 15:57:00,
2013-02-12 10:00:00,34.0,18.2,28.94,NE,34,0.0,0.0,52,0.04,,---,0.12,VWS V14.00,2013-02-12 16:00:00,
2013-02-12 10:01:00,34.0,18.2,28.94,NE,34,0.0,0.0,52,0.04,,---,0.12,VWS V14.00,2013-02-12 16:01:00,
2013-02-12 10:02:00,34.0,18.2,28.94,North,357,0.0,0.0,52,0.04,,---,0.12,VWS V14.00,2013-02-12 16:02:00,
2013-02-12 10:05:00,34.0,18.2,28.94,North,357,3.6,3.6,52,0.04,,---,0.12,VWS V14.00,2013-02-12 16:05:00,
2013-02-12 10:06:00,34.0,18.2,28.94,North,357,3.6,3.6,52,0.04,,---,0.12,VWS V14.00,2013-02-12 16:06:00,
2013-02-12 10:07:00,34.0,18.2,28.94,North,357,3.6,3.6,52,0.04,,---,0.12,VWS V14.00,2013-02-12 16:07:00,
2013-02-12 10:11:00,34.0,18.2,28.94,North,0,3.1,3.1,52,0.00,,---,0.12,VWS V14.00,2013-02-12 16:11:00,
2013-02-12 10:12:00,34.0,18.2,28.94,North,8,2.7,3.1,52,0.00,,---,0.12,VWS V14.00,2013-02-12 16:12:00,
2013-02-12 10:16:00,34.2,19.3,28.94,North,7,0.0,0.0,54,0.04,,---,0.16,VWS V14.00,2013-02-12 16:16:00,
2013-02-12 10:17:00,34.2,19.3,28.94,North,7,0.0,0.0,54,0.04,,---,0.16,VWS V14.00,2013-02-12 16:17:00,
2013-02-12 10:21:00,34.2,19.3,28.94,North,7,0.0,0.0,54,0.04,,---,0.16,VWS V14.00,2013-02-12 16:21:00,
2013-02-12 10:22:00,34.2,19.3,28.94,North,2,3.1,3.1,54,0.04,,---,0.16,VWS V14.00,2013-02-12 16:22:00,
2013-02-12 10:26:00,33.8,18.9,28.94,NNE,18,3.1,3.1,54,0.04,,---,0.16,VWS V14.00,2013-02-12 16:26:00,
2013-02-12 10:27:00,33.8,18.9,28.94,NNE,20,0.0,3.1,54,0.04,,---,0.16,VWS V14.00,2013-02-12 16:27:00,
2013-02-12 10:31:00,33.8,18.9,28.94,North,11,2.7,3.1,54,0.04,,---,0.16,VWS V14.00,2013-02-12 16:31:00,
2013-02-12 10:32:00,33.8,18.9,28.94,North,11,2.7,2.7,54,0.04,,---,0.16,VWS V14.00,2013-02-12 16:32:00,
2013-02-12 10:36:00,33.8,18.9,28.94,North,11,2.7,2.7,54,0.04,,---,0.16,VWS V14.00,2013-02-12 16:36:00,
2013-02-12 10:37:00,33.8,18.9,28.94,North,11,2.7,2.7,54,0.04,,---,0.16,VWS V14.00,2013-02-12 16:37:00,
2013-02-12 10:38:00,33.8,18.9,28.94,North,11,4.0,4.0,54,0.04,,---,0.16,VWS V14.00,2013-02-12 16:38:00,
2013-02-12 10:41:00,33.4,19.9,28.94,North,3,3.1,3.1,57,0.04,,---,0.16,VWS V14.00,2013-02-12 16:41:00,
2013-02-12 10:42:00,33.4,19.9,28.94,North,357,2.7,3.1,57,0.04,,---,0.16,VWS V14.00,2013-02-12 16:42:00,
2013-02-12 10:43:00,33.4,19.9,28.94,North,357,2.7,2.7,57,0.04,,---,0.16,VWS V14.00,2013-02-12 16:43:00,
2013-02-12 10:47:00,33.3,20.1,28.94,North,357,3.1,3.1,58,0.04,,---,0.16,VWS V14.00,2013-02-12 16:47:00,
2013-02-12 10:48:00,33.3,20.1,28.94,North,0,0.0,0.0,58,0.04,,---,0.16,VWS V14.00,2013-02-12 16:48:00,
2013-02-12 10:52:00,33.3,20.5,28.94,North,357,0.0,0.0,59,0.04,,---,0.16,VWS V14.00,2013-02-12 16:52:00,
2013-02-12 10:53:00,33.3,20.5,28.94,North,9,0.0,0.0,59,0.04,,---,0.16,VWS V14.00,2013-02-12 16:53:00,
2013-02-12 10:57:00,33.3,20.5,28.94,North,9,2.2,2.2,59,0.04,,---,0.16,VWS V14.00,2013-02-12 16:57:00,
2013-02-12 10:58:00,33.3,20.5,28.94,North,9,2.2,2.2,59,0.04,,---,0.16,VWS V14.00,2013-02-12 16:58:00,
2013-02-12 11:02:00,33.3,20.5,28.94,North,9,2.2,2.2,59,0.04,,---,0.16,VWS V14.00,2013-02-12 17:02:00,
2013-02-12 11:03:00,33.3,20.5,28.94,North,9,2.2,2.2,59,0.04,,---,0.16,VWS V14.00,2013-02-12 17:03:00,
2013-02-12 11:07:00,33.1,21.1,28.94,North,4,0.0,0.0,61,0.04,,---,0.16,VWS V14.00,2013-02-12 17:07:00,
2013-02-12 11:08:00,33.1,21.1,28.94,North,4,0.0,0.0,61,0.04,,---,0.16,VWS V14.00,2013-02-12 17:08:00,
2013-02-12 11:13:00,33.1,21.5,28.94,North,5,0.0,0.0,62,0.04,,---,0.16,VWS V14.00,2013-02-12 17:13:00,
2013-02-12 11:18:00,33.3,22.0,28.94,NNE,13,0.0,0.0,63,0.00,,---,0.16,VWS V14.00,2013-02-12 17:18:00,
2013-02-12 11:19:00,33.3,22.0,28.94,North,8,0.0,0.0,63,0.00,,---,0.16,VWS V14.00,2013-02-12 17:19:00,
2013-02-12 11:23:00,33.3,22.0,28.94,North,3,0.0,0.0,63,0.00,,---,0.16,VWS V14.00,2013-02-12 17:23:00,
2013-02-12 11:24:00,33.3,22.0,28.94,North,3,0.0,0.0,63,0.00,,---,0.16,VWS V14.00,2013-02-12 17:24:00,
2013-02-12 11:28:00,33.3,22.0,28.94,North,3,0.0,0.0,63,0.00,,---,0.16,VWS V14.00,2013-02-12 17:28:00,
2013-02-12 11:29:00,33.3,22.0,28.94,North,3,0.0,0.0,63,0.00,,---,0.16,VWS V14.00,2013-02-12 17:29:00,
2013-02-12 11:33:00,33.3,22.0,28.94,North,0,0.0,0.0,63,0.00,,---,0.16,VWS V14.00,2013-02-12 17:33:00,
2013-02-12 11:34:00,33.3,22.0,28.94,North,0,0.0,0.0,63,0.00,,---,0.16,VWS V14.00,2013-02-12 17:34:00,
2013-02-12 11:38:00,33.3,22.0,28.94,North,5,0.0,0.0,63,0.00,,---,0.16,VWS V14.00,2013-02-12 17:38:00,
2013-02-12 11:39:00,33.3,22.0,28.94,North,5,0.0,0.0,63,0.00,,---,0.16,VWS V14.00,2013-02-12 17:39:00,
2013-02-12 11:43:00,33.3,22.8,28.94,North,357,0.0,0.0,65,0.00,,---,0.16,VWS V14.00,2013-02-12 17:43:00,
2013-02-12 11:44:00,33.4,23.0,28.94,North,357,0.0,0.0,65,0.00,,---,0.16,VWS V14.00,2013-02-12 17:44:00,
2013-02-12 11:48:00,33.4,23.0,28.94,NNE,27,0.0,0.0,65,0.00,,---,0.16,VWS V14.00,2013-02-12 17:48:00,
2013-02-12 11:49:00,33.4,23.0,28.94,NNE,20,0.0,0.0,65,0.00,,---,0.16,VWS V14.00,2013-02-12 17:49:00,
2013-02-12 11:50:00,33.4,23.0,28.94,North,7,0.0,0.0,65,0.00,,---,0.16,VWS V14.00,2013-02-12 17:50:00,
2013-02-12 11:53:00,33.4,23.3,28.94,North,7,0.0,0.0,66,0.00,,---,0.16,VWS V14.00,2013-02-12 17:53:00,
2013-02-12 11:54:00,33.4,23.3,28.94,North,7,0.0,0.0,66,0.00,,---,0.16,VWS V14.00,2013-02-12 17:54:00,
2013-02-12 11:55:00,33.4,23.3,28.94,North,7,0.0,0.0,66,0.00,,---,0.16,VWS V14.00,2013-02-12 17:55:00,
2013-02-12 11:58:00,33.6,23.5,28.94,NNW,335,0.0,0.0,66,0.00,,---,0.16,VWS V14.00,2013-02-12 17:58:00,
2013-02-12 11:59:00,33.6,23.5,28.94,NNW,335,0.0,0.0,66,0.00,,---,0.16,VWS V14.00,2013-02-12 17:59:00,
2013-02-12 12:00:00,33.6,23.5,28.94,NNW,335,0.0,0.0,66,0.00,,---,0.16,VWS V14.00,2013-02-12 18:00:00,
2013-02-12 12:03:00,33.6,23.5,28.94,North,4,0.0,0.0,66,0.00,,---,0.16,VWS V14.00,2013-02-12 18:03:00,
2013-02-12 12:04:00,33.6,23.5,28.94,North,4,0.0,0.0,66,0.00,,---,0.16,VWS V14.00,2013-02-12 18:04:00,
2013-02-12 12:05:00,33.6,23.5,28.94,North,4,0.0,0.0,66,0.00,,---,0.16,VWS V14.00,2013-02-12 18:05:00,
2013-02-12 12:09:00,33.8,24.0,28.94,NNW,341,0.0,0.0,67,0.00,,---,0.16,VWS V14.00,2013-02-12 18:09:00,
2013-02-12 12:10:00,33.8,24.0,28.94,West,259,0.0,0.0,67,0.00,,---,0.16,VWS V14.00,2013-02-12 18:10:00,
2013-02-12 12:14:00,33.8,24.0,28.94,West,259,0.0,0.0,67,0.00,,---,0.16,VWS V14.00,2013-02-12 18:14:00,
2013-02-12 12:15:00,33.8,24.0,28.94,WNW,299,0.0,0.0,67,0.00,,---,0.16,VWS V14.00,2013-02-12 18:15:00,
2013-02-12 12:16:00,33.8,24.0,28.91,WNW,299,0.0,0.0,67,0.00,,---,0.16,VWS V14.00,2013-02-12 18:16:00,
2013-02-12 12:19:00,33.8,24.4,28.91,WNW,299,0.0,0.0,68,0.00,,---,0.16,VWS V14.00,2013-02-12 18:19:00,
2013-02-12 12:20:00,33.8,24.4,28.91,North,6,0.0,0.0,68,0.00,,---,0.16,VWS V14.00,2013-02-12 18:20:00,
2013-02-12 12:21:00,33.8,24.4,28.91,North,6,0.0,0.0,68,0.00,,---,0.16,VWS V14.00,2013-02-12 18:21:00,
2013-02-12 12:24:00,33.8,24.4,28.91,North,353,0.0,0.0,68,0.00,,---,0.16,VWS V14.00,2013-02-12 18:24:00,
2013-02-12 12:25:00,33.8,24.4,28.91,North,353,0.0,0.0,68,0.00,,---,0.16,VWS V14.00,2013-02-12 18:25:00,
2013-02-12 12:26:00,33.8,24.4,28.91,North,353,0.0,0.0,68,0.00,,---,0.16,VWS V14.00,2013-02-12 18:26:00,
2013-02-12 12:29:00,33.8,24.4,28.91,North,353,3.1,3.1,68,0.00,,---,0.16,VWS V14.00,2013-02-12 18:29:00,
2013-02-12 12:30:00,33.8,24.4,28.91,North,353,3.1,3.1,68,0.00,,---,0.16,VWS V14.00,2013-02-12 18:30:00,
2013-02-12 12:31:00,33.8,24.4,28.91,North,353,3.1,3.1,68,0.00,,---,0.16,VWS V14.00,2013-02-12 18:31:00,
2013-02-12 12:34:00,33.8,24.7,28.91,North,8,0.0,0.0,69,0.00,,---,0.16,VWS V14.00,2013-02-12 18:34:00,
2013-02-12 12:35:00,33.8,24.7,28.91,North,8,0.0,0.0,69,0.00,,---,0.16,VWS V14.00,2013-02-12 18:35:00,
2013-02-12 12:36:00,33.8,24.7,28.91,North,8,0.0,0.0,69,0.00,,---,0.16,VWS V14.00,2013-02-12 18:36:00,
2013-02-12 12:40:00,33.8,24.7,28.91,North,8,0.0,0.0,69,0.00,,---,0.16,VWS V14.00,2013-02-12 18:40:00,
2013-02-12 12:41:00,33.8,24.7,28.91,North,8,0.0,0.0,69,0.00,,---,0.16,VWS V14.00,2013-02-12 18:41:00,
2013-02-12 12:42:00,33.8,24.7,28.91,NNW,348,0.0,0.0,69,0.00,,---,0.16,VWS V14.00,2013-02-12 18:42:00,
2013-02-12 12:45:00,34.0,25.2,28.91,WNW,297,5.4,5.4,70,0.00,,---,0.16,VWS V14.00,2013-02-12 18:45:00,
2013-02-12 12:46:00,34.0,25.2,28.91,WNW,297,5.4,5.4,70,0.00,,---,0.16,VWS V14.00,2013-02-12 18:46:00,
2013-02-12 12:47:00,34.0,25.2,28.91,WNW,297,5.4,5.4,70,0.00,,---,0.16,VWS V14.00,2013-02-12 18:47:00,
2013-02-12 12:50:00,34.0,25.2,28.91,North,353,0.0,0.0,70,0.00,,---,0.16,VWS V14.00,2013-02-12 18:50:00,
2013-02-12 12:51:00,34.0,25.2,28.91,North,353,0.0,0.0,70,0.00,,---,0.16,VWS V14.00,2013-02-12 18:51:00,
2013-02-12 12:52:00,34.0,25.2,28.91,North,353,0.0,0.0,70,0.00,,---,0.16,VWS V14.00,2013-02-12 18:52:00,
2013-02-12 12:55:00,34.0,25.2,28.91,NNW,346,0.0,0.0,70,0.00,,---,0.16,VWS V14.00,2013-02-12 18:55:00,
2013-02-12 12:56:00,34.0,25.2,28.91,WNW,303,0.0,0.0,70,0.00,,---,0.16,VWS V14.00,2013-02-12 18:56:00,
2013-02-12 12:57:00,34.0,25.2,28.91,WNW,303,0.0,0.0,70,0.00,,---,0.16,VWS V14.00,2013-02-12 18:57:00,
2013-02-12 13:00:00,33.8,25.1,28.91,North,5,2.7,2.7,70,0.00,,---,0.16,VWS V14.00,2013-02-12 19:00:00,
2013-02-12 13:01:00,33.8,25.1,28.91,North,5,2.7,2.7,70,0.00,,---,0.16,VWS V14.00,2013-02-12 19:01:00,
2013-02-12 13:02:00,33.8,25.1,28.91,North,5,2.7,2.7,70,0.00,,---,0.16,VWS V14.00,2013-02-12 19:02:00,
2013-02-12 13:05:00,33.8,25.1,28.91,North,5,2.7,2.7,70,0.00,,---,0.16,VWS V14.00,2013-02-12 19:05:00,
2013-02-12 13:06:00,33.8,25.1,28.91,North,5,2.7,2.7,70,0.00,,---,0.16,VWS V14.00,2013-02-12 19:06:00,
2013-02-12 13:07:00,33.8,25.1,28.91,North,5,2.7,2.7,70,0.00,,---,0.16,VWS V14.00,2013-02-12 19:07:00,
2013-02-12 13:10:00,33.8,25.1,28.91,North,0,2.2,2.2,70,0.00,,---,0.16,VWS V14.00,2013-02-12 19:10:00,
2013-02-12 13:11:00,33.8,25.1,28.91,North,0,2.2,2.2,70,0.00,,---,0.16,VWS V14.00,2013-02-12 19:11:00,
2013-02-12 13:12:00,33.8,25.4,28.91,North,0,2.2,2.2,71,0.00,,---,0.16,VWS V14.00,2013-02-12 19:12:00,
2013-02-12 13:15:00,33.8,25.4,28.88,NNW,346,4.0,4.0,71,0.00,,---,0.16,VWS V14.00,2013-02-12 19:15:00,
2013-02-12 13:16:00,33.8,25.4,28.88,NNW,346,4.0,4.0,71,0.00,,---,0.16,VWS V14.00,2013-02-12 19:16:00,
2013-02-12 13:17:00,33.8,25.4,28.88,NNW,346,4.0,4.0,71,0.00,,---,0.16,VWS V14.00,2013-02-12 19:17:00,
2013-02-12 13:20:00,33.8,25.4,28.88,NNW,346,4.0,4.0,71,0.00,,---,0.16,VWS V14.00,2013-02-12 19:20:00,
2013-02-12 13:21:00,33.8,25.4,28.88,NNW,346,4.0,4.0,71,0.00,,---,0.16,VWS V14.00,2013-02-12 19:21:00,
2013-02-12 13:22:00,33.8,25.4,28.88,North,0,0.0,4.0,71,0.00,,---,0.16,VWS V14.00,2013-02-12 19:22:00,
2013-02-12 13:23:00,33.8,25.4,28.88,North,0,0.0,0.0,71,0.00,,---,0.16,VWS V14.00,2013-02-12 19:23:00,
2013-02-12 13:26:00,34.0,25.6,28.88,NNW,343,2.2,2.2,71,0.00,,---,0.16,VWS V14.00,2013-02-12 19:26:00,
2013-02-12 13:27:00,34.0,25.6,28.88,North,0,3.1,3.1,71,0.00,,---,0.16,VWS V14.00,2013-02-12 19:27:00,
2013-02-12 13:28:00,34.0,25.6,28.88,North,0,3.1,3.1,71,0.00,,---,0.16,VWS V14.00,2013-02-12 19:28:00,
2013-02-12 13:31:00,34.0,25.6,28.88,North,357,2.7,2.7,71,0.00,,---,0.16,VWS V14.00,2013-02-12 19:31:00,
2013-02-12 13:32:00,34.0,25.6,28.88,North,357,2.7,2.7,71,0.00,,---,0.16,VWS V14.00,2013-02-12 19:32:00,
2013-02-12 13:33:00,34.0,25.6,28.88,North,357,2.7,2.7,71,0.00,,---,0.16,VWS V14.00,2013-02-12 19:33:00,
2013-02-12 13:36:00,34.0,25.6,28.88,North,357,2.7,2.7,71,0.00,,---,0.16,VWS V14.00,2013-02-12 19:36:00,
2013-02-12 13:38:00,34.0,25.6,28.88,North,357,2.7,2.7,71,0.00,,---,0.16,VWS V14.00,2013-02-12 19:38:00,
2013-02-12 13:41:00,34.0,25.6,28.88,NNE,12,3.1,3.1,71,0.00,,---,0.16,VWS V14.00,2013-02-12 19:41:00,
2013-02-12 13:43:00,34.0,25.6,28.88,NNE,12,3.1,3.1,71,0.00,,---,0.16,VWS V14.00,2013-02-12 19:43:00,
2013-02-12 13:44:00,34.0,25.6,28.88,NNE,12,3.1,3.1,71,0.00,,---,0.16,VWS V14.00,2013-02-12 19:44:00,
2013-02-12 13:46:00,34.0,25.6,28.88,NNE,12,3.1,3.1,71,0.00,,---,0.16,VWS V14.00,2013-02-12 19:46:00,
2013-02-12 13:48:00,34.0,25.6,28.88,North,7,0.0,0.0,71,0.00,,---,0.16,VWS V14.00,2013-02-12 19:48:00,
2013-02-12 13:49:00,34.0,25.6,28.88,North,7,0.0,0.0,71,0.00,,---,0.16,VWS V14.00,2013-02-12 19:49:00,
2013-02-12 13:51:00,34.0,25.6,28.88,North,357,0.0,0.0,71,0.00,,---,0.16,VWS V14.00,2013-02-12 19:51:00,
2013-02-12 13:52:00,34.0,25.6,28.88,North,357,0.0,0.0,71,0.00,,---,0.16,VWS V14.00,2013-02-12 19:52:00,
2013-02-12 13:53:00,34.0,25.6,28.88,North,357,0.0,0.0,71,0.00,,---,0.16,VWS V14.00,2013-02-12 19:53:00,
2013-02-12 13:54:00,34.0,25.6,28.88,North,357,0.0,0.0,71,0.00,,---,0.16,VWS V14.00,2013-02-12 19:54:00,
2013-02-12 13:56:00,34.0,25.6,28.88,North,357,0.0,0.0,71,0.00,,---,0.16,VWS V14.00,2013-02-12 19:56:00,
2013-02-12 13:57:00,34.0,25.6,28.88,North,357,0.0,0.0,71,0.00,,---,0.16,VWS V14.00,2013-02-12 19:57:00,
2013-02-12 13:58:00,34.0,25.6,28.88,North,357,0.0,0.0,71,0.00,,---,0.16,VWS V14.00,2013-02-12 19:58:00,
2013-02-12 13:59:00,34.0,25.6,28.88,North,8,0.0,0.0,71,0.00,,---,0.16,VWS V14.00,2013-02-12 19:59:00,
2013-02-12 14:01:00,34.0,25.6,28.88,NNW,332,2.2,2.2,71,0.00,,---,0.16,VWS V14.00,2013-02-12 20:01:00,
2013-02-12 14:02:00,34.0,25.6,28.88,NNW,332,2.2,2.2,71,0.00,,---,0.16,VWS V14.00,2013-02-12 20:02:00,
2013-02-12 14:03:00,34.0,25.6,28.88,NNW,332,2.2,2.2,71,0.00,,---,0.16,VWS V14.00,2013-02-12 20:03:00,
2013-02-12 14:04:00,34.0,25.6,28.88,NNW,332,2.2,2.2,71,0.00,,---,0.16,VWS V14.00,2013-02-12 20:04:00,
2013-02-12 14:06:00,34.0,25.6,28.88,North,357,4.0,4.0,71,0.00,,---,0.16,VWS V14.00,2013-02-12 20:06:00,
2013-02-12 14:07:00,34.0,25.6,28.88,North,357,4.0,4.0,71,0.00,,---,0.16,VWS V14.00,2013-02-12 20:07:00,
2013-02-12 14:08:00,34.0,25.6,28.88,North,357,4.0,4.0,71,0.00,,---,0.16,VWS V14.00,2013-02-12 20:08:00,
2013-02-12 14:10:00,33.8,25.7,28.88,North,357,4.0,4.0,72,0.00,,---,0.16,VWS V14.00,2013-02-12 20:10:00,
2013-02-12 14:11:00,33.8,25.7,28.88,North,357,4.0,4.0,72,0.00,,---,0.16,VWS V14.00,2013-02-12 20:11:00,
2013-02-12 14:12:00,33.8,25.7,28.88,North,357,4.0,4.0,72,0.00,,---,0.16,VWS V14.00,2013-02-12 20:12:00,
2013-02-12 14:13:00,33.8,25.7,28.88,North,357,4.0,4.0,72,0.00,,---,0.16,VWS V14.00,2013-02-12 20:13:00,
2013-02-12 14:15:00,33.8,25.7,28.88,North,0,2.7,4.0,72,0.00,,---,0.16,VWS V14.00,2013-02-12 20:15:00,
2013-02-12 14:16:00,33.8,25.7,28.88,NNE,13,3.1,3.1,72,0.00,,---,0.16,VWS V14.00,2013-02-12 20:16:00,
2013-02-12 14:17:00,33.8,25.7,28.88,NNE,13,3.1,3.1,72,0.00,,---,0.16,VWS V14.00,2013-02-12 20:17:00,
2013-02-12 14:19:00,33.8,25.7,28.88,NNE,13,3.1,3.1,72,0.00,,---,0.16,VWS V14.00,2013-02-12 20:19:00,
2013-02-12 14:20:00,33.8,25.7,28.88,NNE,13,3.1,3.1,72,0.00,,---,0.16,VWS V14.00,2013-02-12 20:20:00,
2013-02-12 14:21:00,33.8,25.7,28.88,NNE,19,2.7,2.7,72,0.00,,---,0.16,VWS V14.00,2013-02-12 20:21:00,
2013-02-12 14:23:00,33.8,25.7,28.88,NNE,19,2.7,2.7,72,0.00,,---,0.16,VWS V14.00,2013-02-12 20:23:00,
2013-02-12 14:24:00,33.8,25.7,28.88,NNE,19,2.7,2.7,72,0.00,,---,0.16,VWS V14.00,2013-02-12 20:24:00,
2013-02-12 14:25:00,33.8,25.7,28.88,NNE,19,2.7,2.7,72,0.00,,---,0.16,VWS V14.00,2013-02-12 20:25:00,
2013-02-12 14:26:00,33.8,25.7,28.88,NNE,19,2.7,2.7,72,0.00,,---,0.16,VWS V14.00,2013-02-12 20:26:00,
2013-02-12 14:28:00,33.8,25.7,28.88,NNE,14,2.7,2.7,72,0.00,,---,0.16,VWS V14.00,2013-02-12 20:28:00,
2013-02-12 14:29:00,33.8,25.7,28.88,NNE,14,2.7,2.7,72,0.00,,---,0.16,VWS V14.00,2013-02-12 20:29:00,
2013-02-12 14:30:00,33.8,25.7,28.88,NNE,14,2.7,2.7,72,0.00,,---,0.16,VWS V14.00,2013-02-12 20:30:00,
2013-02-12 14:32:00,33.8,25.7,28.85,ENE,57,4.0,4.0,72,0.00,,---,0.16,VWS V14.00,2013-02-12 20:32:00,
2013-02-12 14:33:00,33.8,25.7,28.85,North,9,3.1,3.1,72,0.00,,---,0.16,VWS V14.00,2013-02-12 20:33:00,
2013-02-12 14:34:00,33.8,25.7,28.85,North,2,3.1,3.1,72,0.00,,---,0.16,VWS V14.00,2013-02-12 20:34:00,
2013-02-12 14:35:00,33.8,25.7,28.85,North,2,3.1,3.1,72,0.00,,---,0.16,VWS V14.00,2013-02-12 20:35:00,
2013-02-12 14:37:00,33.8,25.7,28.85,North,2,3.1,3.1,72,0.00,,---,0.16,VWS V14.00,2013-02-12 20:37:00,
2013-02-12 14:38:00,33.8,25.7,28.85,North,2,3.1,3.1,72,0.00,,---,0.16,VWS V14.00,2013-02-12 20:38:00,
2013-02-12 14:39:00,33.8,25.7,28.85,North,2,3.1,3.1,72,0.00,,---,0.16,VWS V14.00,2013-02-12 20:39:00,
2013-02-12 14:40:00,33.8,25.7,28.85,North,2,3.1,3.1,72,0.00,,---,0.16,VWS V14.00,2013-02-12 20:40:00,
2013-02-12 14:42:00,33.6,25.6,28.85,NNE,25,4.0,4.0,72,0.00,,---,0.16,VWS V14.00,2013-02-12 20:42:00,
2013-02-12 14:43:00,33.6,25.6,28.85,NNE,25,4.0,4.0,72,0.00,,---,0.16,VWS V14.00,2013-02-12 20:43:00,
2013-02-12 14:44:00,33.6,25.6,28.85,NNE,25,4.0,4.0,72,0.00,,---,0.16,VWS V14.00,2013-02-12 20:44:00,
2013-02-12 14:45:00,33.6,25.6,28.85,NNE,25,4.0,4.0,72,0.00,,---,0.16,VWS V14.00,2013-02-12 20:45:00,
2013-02-12 14:47:00,33.6,25.6,28.88,NNE,25,4.0,4.0,72,0.00,,---,0.16,VWS V14.00,2013-02-12 20:47:00,
2013-02-12 14:48:00,33.6,25.6,28.88,NNE,25,4.0,4.0,72,0.00,,---,0.16,VWS V14.00,2013-02-12 20:48:00,
2013-02-12 14:49:00,33.6,25.6,28.88,NNE,25,4.0,4.0,72,0.00,,---,0.16,VWS V14.00,2013-02-12 20:49:00,
2013-02-12 14:50:00,33.6,25.6,28.88,NNE,25,4.0,4.0,72,0.00,,---,0.16,VWS V14.00,2013-02-12 20:50:00,
2013-02-12 14:52:00,33.6,25.6,28.88,NNE,25,4.0,4.0,72,0.00,,---,0.16,VWS V14.00,2013-02-12 20:52:00,
2013-02-12 14:53:00,33.6,25.6,28.88,North,357,3.1,4.0,72,0.00,,---,0.16,VWS V14.00,2013-02-12 20:53:00,
2013-02-12 14:55:00,33.6,25.6,28.88,North,357,2.7,3.1,72,0.00,,---,0.16,VWS V14.00,2013-02-12 20:55:00,
2013-02-12 14:57:00,33.6,25.6,28.88,North,357,2.7,2.7,72,0.00,,---,0.16,VWS V14.00,2013-02-12 20:57:00,
2013-02-12 14:59:00,33.6,25.6,28.88,North,357,2.7,2.7,72,0.00,,---,0.16,VWS V14.00,2013-02-12 20:59:00,
2013-02-12 15:00:00,33.6,25.6,28.88,North,357,2.7,2.7,72,0.00,,---,0.16,VWS V14.00,2013-02-12 21:00:00,
2013-02-12 15:01:00,33.6,25.6,28.88,North,357,2.7,2.7,72,0.00,,---,0.16,VWS V14.00,2013-02-12 21:01:00,
2013-02-12 15:02:00,33.6,25.6,28.88,North,357,2.7,2.7,72,0.00,,---,0.16,VWS V14.00,2013-02-12 21:02:00,
2013-02-12 15:05:00,33.6,25.6,28.88,North,7,2.7,2.7,72,0.00,,---,0.16,VWS V14.00,2013-02-12 21:05:00,
2013-02-12 15:06:00,33.6,25.6,28.88,North,7,2.7,2.7,72,0.00,,---,0.16,VWS V14.00,2013-02-12 21:06:00,
2013-02-12 15:07:00,33.6,25.6,28.88,North,0,3.6,3.6,72,0.00,,---,0.16,VWS V14.00,2013-02-12 21:07:00,
2013-02-12 15:10:00,33.6,25.6,28.88,North,0,2.2,2.2,72,0.00,,---,0.16,VWS V14.00,2013-02-12 21:10:00,
2013-02-12 15:11:00,33.4,25.7,28.88,North,0,2.2,2.2,73,0.00,,---,0.16,VWS V14.00,2013-02-12 21:11:00,
2013-02-12 15:12:00,33.4,25.7,28.88,North,0,2.2,2.2,73,0.00,,---,0.16,VWS V14.00,2013-02-12 21:12:00,
2013-02-12 15:15:00,33.4,25.7,28.88,North,0,2.2,2.2,73,0.00,,---,0.16,VWS V14.00,2013-02-12 21:15:00,
2013-02-12 15:16:00,33.4,25.7,28.88,North,0,2.2,2.2,73,0.00,,---,0.16,VWS V14.00,2013-02-12 21:16:00,
2013-02-12 15:17:00,33.4,25.7,28.88,North,0,2.2,2.2,73,0.00,,---,0.16,VWS V14.00,2013-02-12 21:17:00,
2013-02-12 15:20:00,33.4,25.7,28.88,North,0,2.2,2.2,73,0.00,,---,0.16,VWS V14.00,2013-02-12 21:20:00,
2013-02-12 15:21:00,33.4,25.7,28.88,North,5,2.2,2.2,73,0.00,,---,0.16,VWS V14.00,2013-02-12 21:21:00,
2013-02-12 15:22:00,33.6,25.9,28.88,North,5,2.2,2.2,73,0.00,,---,0.16,VWS V14.00,2013-02-12 21:22:00,
2013-02-12 15:25:00,33.6,25.9,28.85,North,5,2.2,2.2,73,0.00,,---,0.16,VWS V14.00,2013-02-12 21:25:00,
2013-02-12 15:26:00,33.6,25.9,28.85,North,5,2.2,2.2,73,0.00,,---,0.16,VWS V14.00,2013-02-12 21:26:00,
2013-02-12 15:27:00,33.6,25.9,28.85,NNE,13,0.0,0.0,73,0.00,,---,0.16,VWS V14.00,2013-02-12 21:27:00,
2013-02-12 15:30:00,33.6,25.9,28.85,NNE,13,0.0,0.0,73,0.00,,---,0.16,VWS V14.00,2013-02-12 21:30:00,
2013-02-12 15:31:00,33.6,25.9,28.85,NNE,13,0.0,0.0,73,0.00,,---,0.16,VWS V14.00,2013-02-12 21:31:00,
2013-02-12 15:32:00,33.6,25.9,28.85,NNE,13,0.0,0.0,73,0.00,,---,0.16,VWS V14.00,2013-02-12 21:32:00,
2013-02-12 15:35:00,33.8,26.1,28.85,NNW,330,2.7,4.0,73,0.00,,---,0.16,VWS V14.00,2013-02-12 21:35:00,
2013-02-12 15:36:00,33.8,26.1,28.85,NNW,330,2.7,2.7,73,0.00,,---,0.16,VWS V14.00,2013-02-12 21:36:00,
2013-02-12 15:37:00,33.8,26.1,28.85,NNW,330,2.7,2.7,73,0.00,,---,0.16,VWS V14.00,2013-02-12 21:37:00,
2013-02-12 15:40:00,33.8,26.1,28.85,North,357,4.9,4.9,73,0.00,,---,0.16,VWS V14.00,2013-02-12 21:40:00,
2013-02-12 15:42:00,33.8,26.1,28.85,North,357,4.9,4.9,73,0.00,,---,0.16,VWS V14.00,2013-02-12 21:42:00,
2013-02-12 15:46:00,33.8,26.1,28.85,North,357,4.9,4.9,73,0.00,,---,0.16,VWS V14.00,2013-02-12 21:46:00,
2013-02-12 15:47:00,33.8,26.1,28.85,North,357,4.9,4.9,73,0.00,,---,0.16,VWS V14.00,2013-02-12 21:47:00,
2013-02-12 15:48:00,33.8,26.1,28.85,North,0,3.6,4.9,73,0.00,,---,0.16,VWS V14.00,2013-02-12 21:48:00,
2013-02-12 15:51:00,33.8,26.1,28.85,North,0,3.6,3.6,73,0.00,,---,0.16,VWS V14.00,2013-02-12 21:51:00,
2013-02-12 15:52:00,33.8,26.1,28.85,North,0,3.6,3.6,73,0.00,,---,0.16,VWS V14.00,2013-02-12 21:52:00,
2013-02-12 15:53:00,33.8,26.1,28.85,North,0,3.6,3.6,73,0.00,,---,0.16,VWS V14.00,2013-02-12 21:53:00,
2013-02-12 15:56:00,33.8,26.1,28.85,North,0,3.6,3.6,73,0.00,,---,0.16,VWS V14.00,2013-02-12 21:56:00,
2013-02-12 15:57:00,33.8,26.4,28.85,North,0,3.6,3.6,74,0.00,,---,0.16,VWS V14.00,2013-02-12 21:57:00,
2013-02-12 15:58:00,33.8,26.4,28.85,North,0,3.6,3.6,74,0.00,,---,0.16,VWS V14.00,2013-02-12 21:58:00,
2013-02-12 16:01:00,33.8,26.4,28.85,North,9,3.1,3.1,74,0.00,,---,0.16,VWS V14.00,2013-02-12 22:01:00,
2013-02-12 16:02:00,33.8,26.4,28.85,North,9,3.1,3.1,74,0.00,,---,0.16,VWS V14.00,2013-02-12 22:02:00,
2013-02-12 16:03:00,33.8,26.4,28.85,North,9,3.1,3.1,74,0.00,,---,0.16,VWS V14.00,2013-02-12 22:03:00,
2013-02-12 16:06:00,33.8,26.4,28.85,North,9,3.1,3.1,74,0.00,,---,0.16,VWS V14.00,2013-02-12 22:06:00,
2013-02-12 16:07:00,33.8,26.4,28.85,North,9,3.1,3.1,74,0.00,,---,0.16,VWS V14.00,2013-02-12 22:07:00,
2013-02-12 16:08:00,33.8,26.4,28.85,North,9,3.1,3.1,74,0.00,,---,0.16,VWS V14.00,2013-02-12 22:08:00,
2013-02-12 16:12:00,33.8,26.4,28.85,North,357,0.0,0.0,74,0.00,,---,0.16,VWS V14.00,2013-02-12 22:12:00,
2013-02-12 16:13:00,33.8,26.4,28.85,North,0,5.4,5.4,74,0.00,,---,0.16,VWS V14.00,2013-02-12 22:13:00,
2013-02-12 16:17:00,33.8,26.4,28.85,North,9,4.0,4.0,74,0.00,,---,0.16,VWS V14.00,2013-02-12 22:17:00,
2013-02-12 16:18:00,33.8,26.4,28.85,North,9,4.0,4.0,74,0.00,,---,0.16,VWS V14.00,2013-02-12 22:18:00,
2013-02-12 16:22:00,33.8,26.4,28.85,NNE,26,0.0,3.6,74,0.00,,---,0.16,VWS V14.00,2013-02-12 22:22:00,
2013-02-12 16:23:00,33.8,26.4,28.85,NNE,21,2.7,2.7,74,0.00,,---,0.16,VWS V14.00,2013-02-12 22:23:00,
2013-02-12 16:28:00,34.0,26.6,28.85,NNE,15,2.2,5.4,74,0.00,,---,0.16,VWS V14.00,2013-02-12 22:28:00,
2013-02-12 16:29:00,34.0,26.6,28.85,NNE,15,2.2,2.2,74,0.00,,---,0.16,VWS V14.00,2013-02-12 22:29:00,
2013-02-12 16:33:00,34.0,26.6,28.85,North,357,5.8,6.7,74,0.00,,---,0.16,VWS V14.00,2013-02-12 22:33:00,
2013-02-12 16:34:00,34.0,26.6,28.85,North,353,7.6,7.6,74,0.00,,---,0.16,VWS V14.00,2013-02-12 22:34:00,
2013-02-12 16:38:00,33.8,26.4,28.85,NNW,346,5.4,5.4,74,0.00,,---,0.16,VWS V14.00,2013-02-12 22:38:00,
2013-02-12 16:39:00,33.8,26.4,28.85,North,9,5.4,5.4,74,0.00,,---,0.16,VWS V14.00,2013-02-12 22:39:00,
2013-02-12 16:43:00,33.8,26.4,28.85,North,353,6.7,6.7,74,0.00,,---,0.16,VWS V14.00,2013-02-12 22:43:00,
2013-02-12 16:44:00,33.8,26.4,28.85,North,353,6.7,6.7,74,0.00,,---,0.16,VWS V14.00,2013-02-12 22:44:00,
2013-02-12 16:48:00,33.8,26.7,28.88,NNE,12,6.3,6.3,75,0.00,,---,0.16,VWS V14.00,2013-02-12 22:48:00,
2013-02-12 16:49:00,33.8,26.7,28.88,North,8,5.4,6.3,75,0.00,,---,0.16,VWS V14.00,2013-02-12 22:49:00,
2013-02-12 16:53:00,33.8,26.7,28.88,North,350,3.6,3.6,75,0.00,,---,0.16,VWS V14.00,2013-02-12 22:53:00,
2013-02-12 16:54:00,33.8,26.7,28.88,North,350,3.6,3.6,75,0.00,,---,0.16,VWS V14.00,2013-02-12 22:54:00,
2013-02-12 16:58:00,33.8,26.7,28.88,NNW,346,3.6,7.6,75,0.00,,---,0.16,VWS V14.00,2013-02-12 22:58:00,
2013-02-12 16:59:00,33.8,26.7,28.88,NNW,346,3.6,7.6,75,0.00,,---,0.16,VWS V14.00,2013-02-12 22:59:00,
2013-02-12 17:04:00,33.8,26.7,28.88,NNW,346,3.6,3.6,75,0.00,,---,0.16,VWS V14.00,2013-02-12 23:04:00,
2013-02-12 17:05:00,33.8,26.7,28.88,North,357,5.4,5.4,75,0.00,,---,0.16,VWS V14.00,2013-02-12 23:05:00,
2013-02-12 17:09:00,33.8,26.7,28.88,North,9,0.0,0.0,75,0.00,,---,0.16,VWS V14.00,2013-02-12 23:09:00,
2013-02-12 17:10:00,33.8,26.7,28.88,North,9,0.0,0.0,75,0.00,,---,0.16,VWS V14.00,2013-02-12 23:10:00,
2013-02-12 17:14:00,33.6,26.9,28.88,NNE,21,2.7,2.7,76,0.00,,---,0.16,VWS V14.00,2013-02-12 23:14:00,
2013-02-12 17:15:00,33.6,26.9,28.88,North,5,4.0,4.0,76,0.00,,---,0.16,VWS V14.00,2013-02-12 23:15:00,
2013-02-12 17:19:00,33.6,26.9,28.88,North,4,4.0,4.0,76,0.00,,---,0.16,VWS V14.00,2013-02-12 23:19:00,
2013-02-12 17:20:00,33.6,26.9,28.88,North,4,4.0,4.0,76,0.00,,---,0.16,VWS V14.00,2013-02-12 23:20:00,
2013-02-12 17:21:00,33.6,26.9,28.88,North,357,3.1,4.0,76,0.00,,---,0.16,VWS V14.00,2013-02-12 23:21:00,
2013-02-12 17:25:00,33.4,26.7,28.88,North,357,3.1,3.1,76,0.00,,---,0.16,VWS V14.00,2013-02-12 23:25:00,
2013-02-12 17:26:00,33.4,26.7,28.88,North,8,3.1,3.1,76,0.00,,---,0.16,VWS V14.00,2013-02-12 23:26:00,
2013-02-12 17:30:00,33.4,26.7,28.88,NNE,22,4.0,5.8,76,0.00,,---,0.16,VWS V14.00,2013-02-12 23:30:00,
2013-02-12 17:31:00,33.4,26.7,28.88,NNE,22,4.0,4.0,76,0.00,,---,0.16,VWS V14.00,2013-02-12 23:31:00,
2013-02-12 17:35:00,33.3,26.5,28.88,North,10,0.0,0.0,76,0.00,,---,0.16,VWS V14.00,2013-02-12 23:35:00,
2013-02-12 17:36:00,33.3,26.5,28.88,North,10,0.0,0.0,76,0.00,,---,0.16,VWS V14.00,2013-02-12 23:36:00,
2013-02-12 17:40:00,33.3,26.5,28.88,NNE,19,4.9,4.9,76,0.00,,---,0.16,VWS V14.00,2013-02-12 23:40:00,
2013-02-12 17:41:00,33.3,26.5,28.88,NNE,19,4.9,4.9,76,0.00,,---,0.16,VWS V14.00,2013-02-12 23:41:00,
2013-02-12 17:46:00,33.3,26.5,28.88,North,7,4.9,4.9,76,0.00,,---,0.16,VWS V14.00,2013-02-12 23:46:00,
2013-02-12 17:47:00,33.3,26.5,28.88,North,7,4.9,4.9,76,0.04,,---,0.20,VWS V14.00,2013-02-12 23:47:00,
2013-02-12 17:51:00,33.3,26.5,28.88,North,6,4.0,4.9,76,0.04,,---,0.20,VWS V14.00,2013-02-12 23:51:00,
2013-02-12 17:52:00,33.3,26.5,28.88,North,9,3.6,3.6,76,0.04,,---,0.20,VWS V14.00,2013-02-12 23:52:00,
2013-02-12 17:56:00,33.3,26.5,28.88,North,3,4.9,4.9,76,0.04,,---,0.20,VWS V14.00,2013-02-12 23:56:00,
2013-02-12 17:58:00,33.3,26.5,28.88,North,3,4.9,4.9,76,0.04,,---,0.20,VWS V14.00,2013-02-12 23:58:00,
2013-02-12 18:01:00,33.3,26.5,28.88,North,2,4.9,4.9,76,0.04,,---,0.20,VWS V14.00,2013-02-13 00:01:00,
2013-02-12 18:02:00,33.3,26.5,28.88,North,2,4.9,4.9,76,0.04,,---,0.20,VWS V14.00,2013-02-13 00:02:00,
2013-02-12 18:03:00,33.3,26.5,28.88,North,2,4.9,4.9,76,0.04,,---,0.20,VWS V14.00,2013-02-13 00:03:00,
2013-02-12 18:06:00,33.3,26.8,28.88,North,7,4.0,4.0,77,0.04,,---,0.20,VWS V14.00,2013-02-13 00:06:00,
2013-02-12 18:07:00,33.3,26.8,28.88,North,7,4.0,4.0,77,0.04,,---,0.20,VWS V14.00,2013-02-13 00:07:00,
2013-02-12 18:08:00,33.3,26.8,28.88,North,7,4.0,4.0,77,0.04,,---,0.20,VWS V14.00,2013-02-13 00:08:00,
2013-02-12 18:11:00,33.3,26.8,28.88,North,3,5.4,5.4,77,0.04,,---,0.20,VWS V14.00,2013-02-13 00:11:00,
2013-02-12 18:12:00,33.3,26.8,28.88,North,3,5.4,5.4,77,0.04,,---,0.20,VWS V14.00,2013-02-13 00:12:00,
2013-02-12 18:13:00,33.3,26.8,28.88,North,3,5.4,5.4,77,0.04,,---,0.20,VWS V14.00,2013-02-13 00:13:00,
2013-02-12 18:16:00,33.3,26.8,28.88,North,9,3.1,3.1,77,0.04,,---,0.20,VWS V14.00,2013-02-13 00:16:00,
2013-02-12 18:17:00,33.3,26.8,28.88,North,9,3.1,3.1,77,0.04,,---,0.20,VWS V14.00,2013-02-13 00:17:00,
2013-02-12 18:18:00,33.3,26.8,28.88,NNE,18,3.1,3.1,77,0.04,,---,0.20,VWS V14.00,2013-02-13 00:18:00,
2013-02-12 18:22:00,33.3,26.8,28.88,North,0,3.1,3.6,77,0.04,,---,0.20,VWS V14.00,2013-02-13 00:22:00,
2013-02-12 18:23:00,33.3,26.8,28.88,North,0,3.1,3.1,77,0.04,,---,0.20,VWS V14.00,2013-02-13 00:23:00,
2013-02-12 18:27:00,33.3,26.8,28.88,North,5,3.6,3.6,77,0.04,,---,0.20,VWS V14.00,2013-02-13 00:27:00,
2013-02-12 18:28:00,33.3,26.8,28.88,North,5,3.6,3.6,77,0.04,,---,0.20,VWS V14.00,2013-02-13 00:28:00,
2013-02-12 18:32:00,33.3,26.8,28.88,North,353,2.7,3.6,77,0.04,,---,0.20,VWS V14.00,2013-02-13 00:32:00,
2013-02-12 18:33:00,33.3,26.8,28.88,North,353,3.6,3.6,77,0.04,,---,0.20,VWS V14.00,2013-02-13 00:33:00,
2013-02-12 18:34:00,33.3,26.8,28.88,North,5,5.8,5.8,77,0.04,,---,0.20,VWS V14.00,2013-02-13 00:34:00,
2013-02-12 18:37:00,33.3,26.8,28.88,North,5,5.8,5.8,77,0.04,,---,0.20,VWS V14.00,2013-02-13 00:37:00,
2013-02-12 18:38:00,33.3,26.8,28.88,North,5,5.8,5.8,77,0.04,,---,0.20,VWS V14.00,2013-02-13 00:38:00,
2013-02-12 18:39:00,33.3,26.8,28.88,North,5,5.8,5.8,77,0.04,,---,0.20,VWS V14.00,2013-02-13 00:39:00,
2013-02-12 18:42:00,33.3,27.1,28.88,North,5,5.8,5.8,78,0.04,,---,0.20,VWS V14.00,2013-02-13 00:42:00,
2013-02-12 18:43:00,33.3,27.1,28.88,North,5,5.8,5.8,78,0.04,,---,0.20,VWS V14.00,2013-02-13 00:43:00,
2013-02-12 18:44:00,33.3,27.1,28.88,North,353,4.0,4.0,78,0.04,,---,0.20,VWS V14.00,2013-02-13 00:44:00,
2013-02-12 18:48:00,33.3,27.1,28.88,NW,321,3.6,3.6,78,0.00,,---,0.20,VWS V14.00,2013-02-13 00:48:00,
2013-02-12 18:49:00,33.3,27.1,28.88,NW,321,3.6,3.6,78,0.00,,---,0.20,VWS V14.00,2013-02-13 00:49:00,
2013-02-12 18:53:00,33.3,27.1,28.88,NNE,18,5.4,5.4,78,0.00,,---,0.20,VWS V14.00,2013-02-13 00:53:00,
2013-02-12 18:54:00,33.3,27.1,28.88,NNE,18,5.4,5.4,78,0.00,,---,0.20,VWS V14.00,2013-02-13 00:54:00,
2013-02-12 18:58:00,33.3,27.1,28.88,NNE,18,5.4,5.4,78,0.00,,---,0.20,VWS V14.00,2013-02-13 00:58:00,
2013-02-12 18:59:00,33.3,27.1,28.88,North,353,3.1,5.4,78,0.00,,---,0.20,VWS V14.00,2013-02-13 00:59:00,
2013-02-12 19:03:00,33.1,27.0,28.88,North,4,4.0,4.0,78,0.00,,---,0.20,VWS V14.00,2013-02-13 01:03:00,
2013-02-12 19:04:00,33.1,27.0,28.88,North,4,4.0,4.0,78,0.00,,---,0.20,VWS V14.00,2013-02-13 01:04:00,
2013-02-12 19:08:00,33.1,27.0,28.88,NNW,339,2.7,2.7,78,0.00,,---,0.20,VWS V14.00,2013-02-13 01:08:00,
2013-02-12 19:09:00,33.1,27.0,28.88,NNW,340,4.0,4.0,78,0.00,,---,0.20,VWS V14.00,2013-02-13 01:09:00,
2013-02-12 19:10:00,33.1,27.0,28.88,NNW,340,4.0,4.0,78,0.00,,---,0.20,VWS V14.00,2013-02-13 01:10:00,
2013-02-12 19:13:00,33.1,27.0,28.88,North,2,2.2,2.2,78,0.00,,---,0.20,VWS V14.00,2013-02-13 01:13:00,
2013-02-12 19:14:00,33.1,27.0,28.88,North,1,3.6,3.6,78,0.00,,---,0.20,VWS V14.00,2013-02-13 01:14:00,
2013-02-12 19:15:00,33.1,27.0,28.88,North,1,3.6,3.6,78,0.00,,---,0.20,VWS V14.00,2013-02-13 01:15:00,
2013-02-12 19:18:00,33.1,27.0,28.91,NNW,335,3.1,3.1,78,0.00,,---,0.20,VWS V14.00,2013-02-13 01:18:00,
2013-02-12 19:19:00,33.1,27.0,28.91,NNW,335,3.1,3.1,78,0.00,,---,0.20,VWS V14.00,2013-02-13 01:19:00,
2013-02-12 19:20:00,33.1,27.0,28.91,NW,321,4.9,4.9,78,0.00,,---,0.20,VWS V14.00,2013-02-13 01:20:00,
2013-02-12 19:24:00,33.1,27.0,28.91,NW,321,4.9,4.9,78,0.00,,---,0.20,VWS V14.00,2013-02-13 01:24:00,
2013-02-12 19:25:00,33.1,27.0,28.91,NW,323,3.1,3.1,78,0.00,,---,0.20,VWS V14.00,2013-02-13 01:25:00,
2013-02-12 19:29:00,32.9,26.8,28.91,North,0,3.1,3.1,78,0.00,,---,0.20,VWS V14.00,2013-02-13 01:29:00,
2013-02-12 19:30:00,32.9,26.8,28.91,North,0,3.1,3.1,78,0.00,,---,0.20,VWS V14.00,2013-02-13 01:30:00,
2013-02-12 19:34:00,32.9,26.8,28.91,North,0,3.1,3.1,78,0.00,,---,0.20,VWS V14.00,2013-02-13 01:34:00,
2013-02-12 19:36:00,32.9,26.8,28.91,NNE,22,4.0,4.0,78,0.00,,---,0.20,VWS V14.00,2013-02-13 01:36:00,
2013-02-12 19:39:00,32.9,26.8,28.91,North,357,4.9,4.9,78,0.00,,---,0.20,VWS V14.00,2013-02-13 01:39:00,
2013-02-12 19:41:00,32.9,26.8,28.91,North,357,4.9,4.9,78,0.00,,---,0.20,VWS V14.00,2013-02-13 01:41:00,
2013-02-12 19:44:00,32.9,26.8,28.91,North,357,4.9,4.9,78,0.00,,---,0.20,VWS V14.00,2013-02-13 01:44:00,
2013-02-12 19:46:00,32.9,26.8,28.91,North,357,4.9,4.9,78,0.00,,---,0.20,VWS V14.00,2013-02-13 01:46:00,
2013-02-12 19:49:00,32.9,26.8,28.91,North,357,4.9,4.9,78,0.00,,---,0.20,VWS V14.00,2013-02-13 01:49:00,
2013-02-12 19:50:00,32.9,26.8,28.91,North,357,4.9,4.9,78,0.00,,---,0.20,VWS V14.00,2013-02-13 01:50:00,
2013-02-12 19:51:00,32.9,26.8,28.91,North,357,3.6,3.6,78,0.00,,---,0.20,VWS V14.00,2013-02-13 01:51:00,
2013-02-12 19:55:00,32.9,26.8,28.91,NW,319,4.9,4.9,78,0.00,,---,0.20,VWS V14.00,2013-02-13 01:55:00,
2013-02-12 19:56:00,32.9,26.8,28.91,NW,319,4.9,4.9,78,0.00,,---,0.20,VWS V14.00,2013-02-13 01:56:00,
2013-02-12 20:00:00,32.9,26.8,28.91,NW,319,4.9,4.9,78,0.00,,---,0.20,VWS V14.00,2013-02-13 02:00:00,
2013-02-12 20:01:00,32.9,26.8,28.91,NW,319,4.9,4.9,78,0.00,,---,0.20,VWS V14.00,2013-02-13 02:01:00,
2013-02-12 20:05:00,32.9,26.8,28.91,North,11,3.6,4.9,78,0.00,,---,0.20,VWS V14.00,2013-02-13 02:05:00,
2013-02-12 20:06:00,32.9,26.8,28.91,North,11,3.6,3.6,78,0.00,,---,0.20,VWS V14.00,2013-02-13 02:06:00,
2013-02-12 20:10:00,32.9,26.8,28.91,North,11,3.6,3.6,78,0.00,,---,0.20,VWS V14.00,2013-02-13 02:10:00,
2013-02-12 20:11:00,32.9,26.8,28.91,North,11,3.6,3.6,78,0.00,,---,0.20,VWS V14.00,2013-02-13 02:11:00,
2013-02-12 20:12:00,32.9,26.8,28.91,North,11,3.6,3.6,78,0.00,,---,0.20,VWS V14.00,2013-02-13 02:12:00,
2013-02-12 20:15:00,32.9,26.8,28.91,North,11,3.6,3.6,78,0.00,,---,0.20,VWS V14.00,2013-02-13 02:15:00,
2013-02-12 20:16:00,32.9,27.1,28.91,North,11,3.6,3.6,79,0.00,,---,0.20,VWS V14.00,2013-02-13 02:16:00,
2013-02-12 20:17:00,32.9,27.1,28.91,North,11,3.6,3.6,79,0.00,,---,0.20,VWS V14.00,2013-02-13 02:17:00,
2013-02-12 20:20:00,32.9,27.1,28.91,North,8,3.6,3.6,79,0.00,,---,0.20,VWS V14.00,2013-02-13 02:20:00,
2013-02-12 20:21:00,32.9,27.1,28.91,North,8,3.6,3.6,79,0.00,,---,0.20,VWS V14.00,2013-02-13 02:21:00,
2013-02-12 20:22:00,32.9,27.1,28.91,North,8,3.6,3.6,79,0.00,,---,0.20,VWS V14.00,2013-02-13 02:22:00,
2013-02-12 20:25:00,32.9,27.1,28.91,NNW,335,2.7,2.7,79,0.00,,---,0.20,VWS V14.00,2013-02-13 02:25:00,
2013-02-12 20:26:00,32.9,27.1,28.91,North,350,4.0,4.0,79,0.00,,---,0.20,VWS V14.00,2013-02-13 02:26:00,
2013-02-12 20:27:00,32.9,27.1,28.91,North,350,4.0,4.0,79,0.00,,---,0.20,VWS V14.00,2013-02-13 02:27:00,
2013-02-12 20:30:00,32.9,27.1,28.91,North,350,4.0,4.0,79,0.00,,---,0.20,VWS V14.00,2013-02-13 02:30:00,
2013-02-12 20:31:00,32.9,27.1,28.91,North,350,4.0,4.0,79,0.00,,---,0.20,VWS V14.00,2013-02-13 02:31:00,
2013-02-12 20:32:00,32.9,27.1,28.91,North,350,4.0,4.0,79,0.00,,---,0.20,VWS V14.00,2013-02-13 02:32:00,
2013-02-12 20:36:00,32.9,27.1,28.91,North,350,4.0,4.0,79,0.00,,---,0.20,VWS V14.00,2013-02-13 02:36:00,
2013-02-12 20:37:00,32.9,27.1,28.91,North,350,4.0,4.0,79,0.00,,---,0.20,VWS V14.00,2013-02-13 02:37:00,
2013-02-12 20:38:00,32.9,27.1,28.91,North,350,4.0,4.0,79,0.00,,---,0.20,VWS V14.00,2013-02-13 02:38:00,
2013-02-12 20:41:00,32.9,27.1,28.91,North,350,4.0,4.0,79,0.00,,---,0.20,VWS V14.00,2013-02-13 02:41:00,
2013-02-12 20:42:00,32.9,27.1,28.91,North,350,4.0,4.0,79,0.00,,---,0.20,VWS V14.00,2013-02-13 02:42:00,
2013-02-12 20:43:00,32.9,27.1,28.91,North,350,4.0,4.0,79,0.00,,---,0.20,VWS V14.00,2013-02-13 02:43:00,
2013-02-12 20:46:00,32.9,27.1,28.91,North,8,5.4,5.4,79,0.00,,---,0.20,VWS V14.00,2013-02-13 02:46:00,
2013-02-12 20:47:00,32.9,27.1,28.91,North,8,5.4,5.4,79,0.00,,---,0.20,VWS V14.00,2013-02-13 02:47:00,
2013-02-12 20:49:00,32.9,27.1,28.91,North,8,5.4,5.4,79,0.00,,---,0.20,VWS V14.00,2013-02-13 02:49:00,
2013-02-12 20:51:00,32.9,27.1,28.91,North,8,5.4,5.4,79,0.00,,---,0.20,VWS V14.00,2013-02-13 02:51:00,
2013-02-12 20:52:00,32.9,27.1,28.91,North,8,5.4,5.4,79,0.00,,---,0.20,VWS V14.00,2013-02-13 02:52:00,
2013-02-12 20:54:00,32.9,27.1,28.91,North,8,5.4,5.4,79,0.00,,---,0.20,VWS V14.00,2013-02-13 02:54:00,
2013-02-12 20:56:00,32.9,27.1,28.91,North,357,2.2,5.4,79,0.00,,---,0.20,VWS V14.00,2013-02-13 02:56:00,
2013-02-12 20:57:00,32.9,27.1,28.91,North,357,2.2,2.2,79,0.00,,---,0.20,VWS V14.00,2013-02-13 02:57:00,
2013-02-12 20:59:00,32.9,27.1,28.91,North,357,2.2,2.2,79,0.00,,---,0.20,VWS V14.00,2013-02-13 02:59:00,
2013-02-12 21:01:00,32.9,27.1,28.91,North,357,2.2,2.2,79,0.00,,---,0.20,VWS V14.00,2013-02-13 03:01:00,
2013-02-12 21:02:00,32.9,27.1,28.91,North,357,2.2,2.2,79,0.00,,---,0.20,VWS V14.00,2013-02-13 03:02:00,
2013-02-12 21:04:00,32.9,27.1,28.94,North,357,2.2,2.2,79,0.00,,---,0.20,VWS V14.00,2013-02-13 03:04:00,
2013-02-12 21:06:00,33.1,27.3,28.94,North,357,2.2,2.2,79,0.00,,---,0.20,VWS V14.00,2013-02-13 03:06:00,
2013-02-12 21:07:00,33.1,27.3,28.94,North,357,2.2,2.2,79,0.00,,---,0.20,VWS V14.00,2013-02-13 03:07:00,
2013-02-12 21:09:00,33.1,27.3,28.94,North,357,3.1,3.1,79,0.00,,---,0.20,VWS V14.00,2013-02-13 03:09:00,
2013-02-12 21:11:00,33.1,27.3,28.94,NW,323,4.0,4.0,79,0.00,,---,0.20,VWS V14.00,2013-02-13 03:11:00,
2013-02-12 21:12:00,33.1,27.3,28.94,NW,323,4.0,4.0,79,0.00,,---,0.20,VWS V14.00,2013-02-13 03:12:00,
2013-02-12 21:14:00,33.1,27.3,28.94,NW,323,4.0,4.0,79,0.00,,---,0.20,VWS V14.00,2013-02-13 03:14:00,
2013-02-12 21:17:00,33.1,27.3,28.94,NW,323,4.0,4.0,79,0.00,,---,0.20,VWS V14.00,2013-02-13 03:17:00,
2013-02-12 21:20:00,33.1,27.3,28.94,NNW,329,3.6,3.6,79,0.00,,---,0.20,VWS V14.00,2013-02-13 03:20:00,
2013-02-12 21:22:00,33.1,27.3,28.94,NNW,329,3.6,3.6,79,0.04,,---,0.24,VWS V14.00,2013-02-13 03:22:00,
2013-02-12 21:25:00,33.1,27.3,28.94,North,353,2.7,3.6,79,0.04,,---,0.24,VWS V14.00,2013-02-13 03:25:00,
2013-02-12 21:27:00,33.1,27.3,28.94,North,353,2.7,2.7,79,0.04,,---,0.24,VWS V14.00,2013-02-13 03:27:00,
2013-02-12 21:28:00,33.1,27.3,28.94,North,353,2.7,2.7,79,0.04,,---,0.24,VWS V14.00,2013-02-13 03:28:00,
2013-02-12 21:30:00,33.1,27.3,28.94,NNW,333,2.7,2.7,79,0.04,,---,0.24,VWS V14.00,2013-02-13 03:30:00,
2013-02-12 21:32:00,33.1,27.3,28.94,NNW,341,3.6,3.6,79,0.04,,---,0.24,VWS V14.00,2013-02-13 03:32:00,
2013-02-12 21:33:00,33.1,27.3,28.94,NNW,341,3.6,3.6,79,0.04,,---,0.24,VWS V14.00,2013-02-13 03:33:00,
2013-02-12 21:35:00,33.1,27.3,28.94,North,353,0.0,0.0,79,0.04,,---,0.24,VWS V14.00,2013-02-13 03:35:00,
2013-02-12 21:37:00,33.1,27.3,28.94,North,0,0.0,0.0,79,0.04,,---,0.24,VWS V14.00,2013-02-13 03:37:00,
2013-02-12 21:38:00,33.1,27.3,28.94,NNE,19,3.1,3.1,79,0.04,,---,0.24,VWS V14.00,2013-02-13 03:38:00,
2013-02-12 21:40:00,33.1,27.3,28.94,NNE,19,3.1,3.1,79,0.04,,---,0.24,VWS V14.00,2013-02-13 03:40:00,
2013-02-12 21:42:00,33.1,27.3,28.94,NNE,19,3.1,3.1,79,0.04,,---,0.24,VWS V14.00,2013-02-13 03:42:00,
2013-02-12 21:43:00,33.1,27.3,28.94,NNE,19,3.1,3.1,79,0.04,,---,0.24,VWS V14.00,2013-02-13 03:43:00,
2013-02-12 21:45:00,33.1,27.3,28.94,NNW,348,2.7,2.7,79,0.04,,---,0.24,VWS V14.00,2013-02-13 03:45:00,
2013-02-12 21:47:00,33.1,27.3,28.94,NNW,348,2.7,2.7,79,0.04,,---,0.24,VWS V14.00,2013-02-13 03:47:00,
2013-02-12 21:48:00,33.1,27.3,28.94,NNW,348,2.7,2.7,79,0.04,,---,0.24,VWS V14.00,2013-02-13 03:48:00,
2013-02-12 21:50:00,32.9,27.1,28.94,NNW,348,2.7,2.7,79,0.04,,---,0.24,VWS V14.00,2013-02-13 03:50:00,
2013-02-12 21:52:00,32.9,27.1,28.94,NW,308,2.7,2.7,79,0.04,,---,0.24,VWS V14.00,2013-02-13 03:52:00,
2013-02-12 21:53:00,32.9,27.1,28.94,NW,308,2.7,2.7,79,0.04,,---,0.24,VWS V14.00,2013-02-13 03:53:00,
2013-02-12 21:54:00,32.9,27.1,28.94,NW,308,2.7,2.7,79,0.04,,---,0.24,VWS V14.00,2013-02-13 03:54:00,
2013-02-12 21:55:00,32.9,27.1,28.94,NW,308,2.7,2.7,79,0.04,,---,0.24,VWS V14.00,2013-02-13 03:55:00,
2013-02-12 21:57:00,32.9,27.1,28.94,NW,308,2.7,2.7,79,0.04,,---,0.24,VWS V14.00,2013-02-13 03:57:00,
2013-02-12 21:58:00,32.9,27.1,28.94,NW,308,2.7,2.7,79,0.04,,---,0.24,VWS V14.00,2013-02-13 03:58:00,
2013-02-12 21:59:00,32.9,27.1,28.94,NW,308,2.7,2.7,79,0.04,,---,0.24,VWS V14.00,2013-02-13 03:59:00,
2013-02-12 22:00:00,32.9,27.1,28.94,NNW,341,0.0,2.7,79,0.04,,---,0.24,VWS V14.00,2013-02-13 04:00:00,
2013-02-12 22:02:00,32.9,27.1,28.94,North,357,3.6,3.6,79,0.04,,---,0.24,VWS V14.00,2013-02-13 04:02:00,
2013-02-12 22:03:00,32.9,27.1,28.94,North,357,3.6,3.6,79,0.04,,---,0.24,VWS V14.00,2013-02-13 04:03:00,
2013-02-12 22:04:00,32.9,27.1,28.94,North,0,3.1,3.6,79,0.04,,---,0.24,VWS V14.00,2013-02-13 04:04:00,
2013-02-12 22:05:00,32.9,27.1,28.94,North,3,6.3,6.3,79,0.04,,---,0.24,VWS V14.00,2013-02-13 04:05:00,
2013-02-12 22:07:00,32.9,27.1,28.94,North,3,6.3,6.3,79,0.04,,---,0.24,VWS V14.00,2013-02-13 04:07:00,
2013-02-12 22:08:00,32.9,27.1,28.94,North,3,6.3,6.3,79,0.04,,---,0.24,VWS V14.00,2013-02-13 04:08:00,
2013-02-12 22:09:00,32.9,27.1,28.94,North,3,6.3,6.3,79,0.04,,---,0.24,VWS V14.00,2013-02-13 04:09:00,
2013-02-12 22:10:00,32.9,27.1,28.94,North,3,6.3,6.3,79,0.04,,---,0.24,VWS V14.00,2013-02-13 04:10:00,
2013-02-12 22:13:00,32.9,27.1,28.94,North,3,6.3,6.3,79,0.04,,---,0.24,VWS V14.00,2013-02-13 04:13:00,
2013-02-12 22:14:00,32.9,27.1,28.94,North,3,6.3,6.3,79,0.04,,---,0.24,VWS V14.00,2013-02-13 04:14:00,
2013-02-12 22:15:00,32.9,27.1,28.94,North,3,6.3,6.3,79,0.04,,---,0.24,VWS V14.00,2013-02-13 04:15:00,
2013-02-12 22:18:00,32.9,27.1,28.94,NNW,341,2.7,6.3,79,0.04,,---,0.24,VWS V14.00,2013-02-13 04:18:00,
2013-02-12 22:19:00,32.9,27.1,28.94,NNW,341,2.7,2.7,79,0.04,,---,0.24,VWS V14.00,2013-02-13 04:19:00,
2013-02-12 22:20:00,32.9,27.1,28.94,NNW,341,2.7,2.7,79,0.04,,---,0.24,VWS V14.00,2013-02-13 04:20:00,
2013-02-12 22:23:00,32.9,27.1,28.94,NNW,341,2.7,2.7,79,0.00,,---,0.24,VWS V14.00,2013-02-13 04:23:00,
2013-02-12 22:24:00,32.9,27.1,28.94,NNW,328,2.7,2.7,79,0.00,,---,0.24,VWS V14.00,2013-02-13 04:24:00,
2013-02-12 22:26:00,32.9,27.1,28.94,North,357,2.2,2.7,79,0.00,,---,0.24,VWS V14.00,2013-02-13 04:26:00,
2013-02-12 22:28:00,32.9,27.1,28.94,North,0,4.9,4.9,79,0.00,,---,0.24,VWS V14.00,2013-02-13 04:28:00,
2013-02-12 22:29:00,32.9,27.1,28.94,North,0,4.9,4.9,79,0.00,,---,0.24,VWS V14.00,2013-02-13 04:29:00,
2013-02-12 22:31:00,32.9,27.1,28.94,North,0,4.9,4.9,79,0.00,,---,0.24,VWS V14.00,2013-02-13 04:31:00,
2013-02-12 22:34:00,32.9,27.1,28.94,North,353,2.2,2.2,79,0.00,,---,0.24,VWS V14.00,2013-02-13 04:34:00,
2013-02-12 22:36:00,32.9,27.1,28.94,North,0,0.0,0.0,79,0.00,,---,0.24,VWS V14.00,2013-02-13 04:36:00,
2013-02-12 22:39:00,32.9,27.1,28.94,NW,326,0.0,0.0,79,0.00,,---,0.24,VWS V14.00,2013-02-13 04:39:00,
2013-02-12 22:41:00,32.9,27.1,28.94,NW,326,0.0,0.0,79,0.00,,---,0.24,VWS V14.00,2013-02-13 04:41:00,
2013-02-12 22:44:00,32.9,27.1,28.94,NW,326,0.0,0.0,79,0.00,,---,0.24,VWS V14.00,2013-02-13 04:44:00,
2013-02-12 22:46:00,32.9,27.1,28.94,North,6,3.1,3.1,79,0.00,,---,0.24,VWS V14.00,2013-02-13 04:46:00,
2013-02-12 22:49:00,32.9,27.1,28.94,North,6,3.1,3.1,79,0.00,,---,0.24,VWS V14.00,2013-02-13 04:49:00,
2013-02-12 22:51:00,32.9,27.1,28.94,North,6,3.1,3.1,79,0.00,,---,0.24,VWS V14.00,2013-02-13 04:51:00,
2013-02-12 22:54:00,32.9,27.1,28.94,NW,306,3.1,3.1,79,0.00,,---,0.24,VWS V14.00,2013-02-13 04:54:00,
2013-02-12 22:55:00,32.9,27.1,28.94,NW,306,3.1,3.1,79,0.00,,---,0.24,VWS V14.00,2013-02-13 04:55:00,
2013-02-12 22:56:00,32.9,27.1,28.94,NNW,336,3.6,3.6,79,0.00,,---,0.24,VWS V14.00,2013-02-13 04:56:00,
2013-02-12 22:59:00,32.9,27.1,28.94,NNE,16,3.1,3.1,79,0.00,,---,0.24,VWS V14.00,2013-02-13 04:59:00,
2013-02-12 23:00:00,32.9,27.1,28.94,NNE,16,3.1,3.1,79,0.00,,---,0.24,VWS V14.00,2013-02-13 05:00:00,
2013-02-12 23:05:00,32.9,27.1,28.94,North,353,4.0,4.0,79,0.00,,---,0.24,VWS V14.00,2013-02-13 05:05:00,
2013-02-12 23:10:00,32.9,27.1,28.94,North,2,3.6,3.6,79,0.00,,---,0.24,VWS V14.00,2013-02-13 05:10:00,
2013-02-12 23:15:00,32.9,27.1,28.94,NNE,12,3.6,3.6,79,0.00,,---,0.24,VWS V14.00,2013-02-13 05:15:00,
2013-02-12 23:20:00,32.9,27.1,28.94,NNE,14,0.0,0.0,79,0.00,,---,0.24,VWS V14.00,2013-02-13 05:20:00,
2013-02-12 23:25:00,32.9,27.1,28.94,NNW,341,0.0,0.0,79,0.00,,---,0.24,VWS V14.00,2013-02-13 05:25:00,
2013-02-12 23:30:00,32.9,27.1,28.94,NW,324,0.0,0.0,79,0.00,,---,0.24,VWS V14.00,2013-02-13 05:30:00,
2013-02-12 23:31:00,32.9,27.1,28.94,NW,324,0.0,0.0,79,0.00,,---,0.24,VWS V14.00,2013-02-13 05:31:00,
2013-02-12 23:35:00,32.9,27.1,28.94,NW,324,0.0,0.0,79,0.00,,---,0.24,VWS V14.00,2013-02-13 05:35:00,
2013-02-12 23:36:00,32.9,27.1,28.94,NW,324,0.0,0.0,79,0.00,,---,0.24,VWS V14.00,2013-02-13 05:36:00,
2013-02-12 23:41:00,32.9,27.1,28.94,NW,326,0.0,0.0,79,0.00,,---,0.24,VWS V14.00,2013-02-13 05:41:00,
2013-02-12 23:46:00,32.9,27.1,28.94,NNW,343,0.0,0.0,79,0.00,,---,0.24,VWS V14.00,2013-02-13 05:46:00,
2013-02-12 23:51:00,32.9,27.1,28.94,NNW,339,2.7,2.7,79,0.00,,---,0.24,VWS V14.00,2013-02-13 05:51:00,
2013-02-12 23:56:00,32.9,27.1,28.94,NW,326,2.7,2.7,79,0.00,,---,0.24,VWS V14.00,2013-02-13 05:56:00,
2013-02-12 23:57:00,32.9,27.1,28.94,NW,326,2.7,2.7,79,0.00,,---,0.24,VWS V14.00,2013-02-13 05:57:00,